[公告] 四月份置底闲聊文

作者
看板 Gossiping
时间
留言 1273则留言,73人参与讨论
推嘘 374推 417嘘 482→
▄▅▂ ▂▄and▅▃▄▅▆▅▄▂▄▅▃) ▂▃▄▅▄▃╲ ╲▅▇﹏﹎\ ﹨/ \′ |▂▄\<" ︿|}▄▂"*|\ ﹨ ﹨▃▆▅▃▂▋▎▎ ◣\|▎′▅▆ 〃 ◢▊▎▏"|▊█"'((/ `'"︿▉/V ▂▄◤`~▄▆▇█▇█▆▄▅▆ ▃▂▄▆▇█▅▄▅▃▅▄▃▂▃▄▄▆▄▃▄▂"v/▄▇﹏﹏︷ㄧ╖/ |▁▁▂▁/ ▇▆ ︿υ( ▆▄ ▄▃╱﹊\﹏﹏ 作者: Kay731 (K少) 看板: Gossiping 标题: [公告] 四月份置底闲聊文 时间: Sun Apr 1 08:52:54 2018 到了四月了 这个月有春假喔~~ 大家可以规划一下假日出游的去处! 儿童节快乐!! 愚人节快乐!! -- ※ 发信站: 批踢踢实业坊(ptt.cc), 来自: 36.226.144.32 ※ 文章网址: https://www.ptt.cc/bbs/Gossiping/M.1522543978.A.542.html
1Fstan1231 (105留言): 吃屎 04/24 00:45
2FMews (32留言): 吃太好了吧 04/24 00:47
3Fsnorkuuera: 辛苦了 加油! 04/24 01:05
4Fgod060119 (17留言): 智障:) 04/24 01:15
6FL1ON (174留言): 咦 04/24 01:54
7Fgod060119 (17留言): 25号快到了 希望爱暴雷的废物 走路不会被车撞死:) 04/24 03:10
8FL1ON (174留言): 好 04/24 03:58
9Finvidia (28留言): 姆咪 (^_^)/ 04/24 06:41
11FL1ON (174留言): 显卡 xjp 姆咪姆咪 04/24 07:00
12Fxjp004123 (37留言): 辐射早 04/24 07:01
13Firumina: 辐射羊 好恐怖OAO 04/24 07:02
14Finvidia (28留言): 啥时进化辐射羊ㄉ 04/24 07:58
15Finvidia (28留言): 狮子酱 安安 04/24 07:58
16Fpony666: 辐射姆咪!! 04/24 08:04
17FL1ON (174留言): 小马早 艾露米娜早 04/24 08:06
18Fasiasssh (45留言): 好可怕 我发现我只剩600石 不够以后的抽卡耶 04/24 08:12
19Fasiasssh (45留言): 短期目标 小学生 伊丝塔 梅林 04/24 08:12
20Fasiasssh (45留言): 这3只明显600石不够R 04/24 08:13
21FL1ON (174留言): 宅亚早 04/24 08:15
22FWhitedew: 早 04/24 08:16
23Fasiasssh (45留言): 早 我好焦虑 石头好少 04/24 08:20
24Fcynthia0620 (46留言): 玛德今天考到六点就解脱了!!! 04/24 08:24
25Fasiasssh (45留言): 考到早上6点 = =? 04/24 08:26
26Fcynthia0620 (46留言): 现在都几点了 04/24 08:28
27Fcynthia0620 (46留言): yorkyoung: 五楼喜欢在马眼塞花生 04/24 08:28
28Fdan5120 (98留言): 6点还早欸 中午睡一下八 04/24 08:40
29Fstan1231 (105留言): 肥物 04/24 08:44
30Fa98450333 (29留言): 喔 04/24 08:57
31Fdan5120 (98留言): ㄈ仔 04/24 09:04
32FL1ON (174留言): 白白 辛西亚 丹丹 史丹 ㄈ仔 早安 04/24 09:07
33FL1ON (174留言): 宅亚你可以课金当欧洲人 04/24 09:07
34FL1ON (174留言): 辛西亚辛苦了,晚上来万华松一下 04/24 09:08
35FL1ON (174留言): 约砲羊人呢?给力呢 04/24 09:08
36Fiovoecu (10留言): 不准塞花生 04/24 09:26
37Fasiasssh (45留言): 我4穷学生 不能课金 04/24 09:38
38FSkydier (44留言): 你是穷学生 那这边都是游民了 04/24 09:40
39Fa98450333 (29留言): 几岁了还在穷学生... 04/24 09:57
40Fwryi1205 (41留言): 我穷学生 04/24 10:06
41FL1ON (174留言): you 天哥 ryi1205 早安 04/24 10:40
42FL1ON (174留言): 宅亚你他妈领美金的人,还在穷学生个屁 04/24 10:41
43Fyorkyoung (52留言): 求包养 04/24 10:56
44Fcynthia0620 (46留言): 楼上没节操 04/24 11:00
45Fmarkkao456: 姆咪~ 04/24 11:07
46Ffantasibear (103留言): 苏醒早安~~每晚梦境都有钢琴音乐背景 真棒 04/24 11:10
47Fstan1231 (105留言): ㄈ仔养我 04/24 11:12
48Fwryi1205 (41留言): 钱 04/24 11:13
49Fdan5120 (98留言): 肛 04/24 11:17
50Fasiasssh (45留言): 问一下 Passionlip强吗 04/24 12:07
51Fstan1231 (105留言): 很弱 不要拿 04/24 12:32
52Fasiasssh (45留言): 大奶怪耶 不抽吗 04/24 13:01
53Fwryi1205 (41留言): no 04/24 13:09
55FL1ON (174留言): 海尔早。宅亚不要再抽了,养我好ㄇ 04/24 13:46
56Fmazz: 雷霆烂透ㄌ 04/24 14:05
58FL1ON (174留言): 马Z 糟糕天 早 糟糕天你那张照片好好笑 04/24 14:42
60FL1ON (174留言): 幻熊早安 04/24 14:45
61Fwryi1205 (41留言): 04/24 14:45
62FBignana: 安安 04/24 14:47
63FL1ON (174留言): 大那那安安 04/24 14:47
66Fstan1231 (105留言): 废物 04/24 15:45
67FL1ON (174留言): 累 睡一会,大家晚安 04/24 15:47
68FHyver (42留言): 狮掰掰掰掰 04/24 15:48
69Fxyz4594 (18留言): 我 04/24 16:15
70Fxyz4594 (18留言): 真 04/24 16:16
71Fxyz4594 (18留言): 的 04/24 16:16
72Fxyz4594 (18留言): 好 04/24 16:16
73Fxyz4594 (18留言): 帅 04/24 16:16
74FHyver (42留言): 楼上醒醒,不要说梦话 04/24 16:32
75Fdan5120 (98留言): 直笛ㄈㄓ有人在种水草的ㄇ 04/24 16:40
76FETABS: 天啊天啊 https://disp.cc/b/163-aav4 04/24 17:00
78Fcodevery0117: ETABS是在洗三小 04/24 17:12
79FETABS: 天啊天啊 https://disp.cc/b/163-aav4 04/24 17:12
80Fwryi1205 (41留言): 04/24 17:18
81Ffkukg52155: 有没有版规管楼上那种的 每篇一直洗真的很烦 04/24 17:23
82Fcynthia0620 (46留言): 连置地都来 04/24 17:25
83FGalLe5566 (122留言): 这一池没有想要的 PASS 04/24 17:28
84FHyver (42留言): 我记得水水懂 04/24 17:30
85Fasiasssh (45留言): 没抽等小学生 04/24 17:31
86Fasiasssh (45留言): https://i.imgur.com/LUd6tQZ.jpg 给力 刷这个 04/24 17:32
87Fdan5120 (98留言): 水水养鱼养乌龟的样子八 老了觉得种种草好养生 04/24 17:32
88FHyver (42留言): 到底在天啊三小啦干 04/24 17:36
89Fkiminocodo (19留言): 呜嘻^_^ 04/24 17:37
90FGalLe5566 (122留言): 我是用分身刷欸... 04/24 17:38
91FGalLe5566 (122留言): 之前我就讲这个 拿来刷友情点用的 04/24 17:38
92Fkiminocodo (19留言): 嘻呜^_^ 04/24 17:39
93FGalLe5566 (122留言): 凯咪口豆 怎么了 04/24 17:39
94Fkiminocodo (19留言): 给力,这只是我的口头禅喇 呜嘻 嘻呜^_^ 04/24 17:44
95Fasiasssh (45留言): 估算了一下 长草期只能刷16万绊 好少喔 04/24 17:45
96FGalLe5566 (122留言): 好吧 原来如此 原来是这么一回事吗? 04/24 17:45
97FGalLe5566 (122留言): 我还有主线要打... 04/24 17:45
98Fasiasssh (45留言): 所以你的分身应该有20只绊10角色 对吧 04/24 17:46
99FGalLe5566 (122留言): 没欸因为还有体力问题 所以是好几只轮流刷 04/24 17:48
101FGalLe5566 (122留言): 宅... 04/24 17:52
102FGalLe5566 (122留言): 你左下角那只丑丑的黑脸是啥? 04/24 17:52
103Fwryi1205 (41留言): 非洲人 04/24 17:54
104FMews (32留言): 那只是无脸男 04/24 17:55
105Fasiasssh (45留言): 那只那么强你不认识? 04/24 17:55
106FGalLe5566 (122留言): 好吧= = 04/24 17:55
107Fasiasssh (45留言): 未来清姬的代理人耶 等清姬满绊以后 速刷种火就靠他了 04/24 17:56
108Fkiminocodo (19留言): 嘻呜 呜嘻 04/24 17:57
109Fasiasssh (45留言): https://i.imgur.com/oT0N8Uk.jpg 贫民配置 04/24 17:57
110FGalLe5566 (122留言): 我还有狂兰跟狂猫能练 04/24 17:59
111Fbadbadook (6留言): 好 屌 04/24 18:37
112Finvidia (28留言): 姆咪 Q_Q Q_Q Q_Q 04/24 18:39
113Fwryi1205 (41留言): 恶 04/24 18:50
114Fdan5120 (98留言): 风好大 04/24 18:50
115FSkydier (44留言): 在恒春待第3天了 还有哪里好玩? 04/24 19:03
116FTempoStorm: TED强无敌 抱歉我错了 04/24 19:07
117Fyorkyoung (52留言): 晚安 04/24 19:28
118Fyorkyoung (52留言): 来去睡 04/24 19:28
119FSkydier (44留言): 88 04/24 19:30
120Fkiminocodo (19留言): 大家晚安,我也要睡了,呜嘻!!! 04/24 19:32
121FHyver (42留言): 掰掰掰掰掰掰ㄅ 04/24 19:37
122Fwryi1205 (41留言): 04/24 19:38
124FSkydier (44留言): ^Q^ 04/24 20:28
126FBenbenyale (40留言): 我把蚊香蛙蛙放在制作人办公室 04/24 21:14
127FSkydier (44留言): 每天prprprprprprprprpr 04/24 21:14
128FRaskolnikov: 高级欧美人不是很爱酸说亚洲人爱捕鲸 04/24 21:39
129Ffun5566: 这个板居然有人会写几十万人考过的中学物理考古题, 害me 04/24 22:01
130Ffun5566: 刚才浪费了 4 p币。 04/24 22:01
132Fwryi1205 (41留言): 干 赤贫 04/24 22:26
133FC13H16ClNO: 马的这两天避一避了 看来一票人想玩爆雷文 04/24 22:38
134FMews (32留言): 钢铁人死了 美国队长变成残障卖口香糖 04/24 22:39
135Fdan5120 (98留言): 米国队长一定死的 其他再死个两只 其他杂鱼随意 04/24 23:04
136Fstan1231 (105留言): 女的两个一定死 04/24 23:06
137FL1ON (174留言): 我没有雷可以爆 04/24 23:06
138Fdan5120 (98留言): 览较辣 大奶女巫不能死 04/24 23:07
139FMews (32留言): 自己当雷啊 冲进电影院大喊美国队长死了 04/24 23:07
140Fdan5120 (98留言): 米国队长便当雷不知道放多久了 4真的 04/24 23:09
141Fcynthia0620 (46留言): 找不到人一起去看...... 04/24 23:11
142FL1ON (174留言): 辛西亚 找纽约羊去ㄚ 04/24 23:17
143FL1ON (174留言): 海鸟你484骗我 04/24 23:17
144FMews (32留言): 看电影都不揪的 哀 04/24 23:19
145FChrisDavis: ㄟ 我可不可以删掉暴雷推文阿 04/24 23:27
146FL1ON (174留言): xjp 你的猫好帅 04/24 23:28
147FL1ON (174留言): 可以删爆雷推文喔 版规有写,ok的 04/24 23:28
148FMews (32留言): 你说删就删? 04/24 23:29
149Fdan5120 (98留言): LOKI老杯是萨诺斯 04/24 23:29
150FYU0121 (48留言): 3nm软屌菌友呢 04/24 23:30
151FChrisDavis: loki老爸不是揆爷吗 04/24 23:30
152Fdan5120 (98留言): 味甚么MLB板主惠来这边辣 去条板灌水蜡 04/24 23:34
153FYU0121 (48留言): 你只要知道他软屌就好了 04/24 23:38
154Ffantasibear (103留言): 玉回来了!!! 04/24 23:41
155FYU0121 (48留言): 我是菌友终结者 04/24 23:47
156Ffantasibear (103留言): 我要看猫猫~~~(⊙v⊙) 04/24 23:50
161FL1ON (174留言): 爱玉耶 04/24 23:55
163Fawfulday (8留言): 睡觉了,至底宅宅晚安 04/24 23:59
164FL1ON (174留言): 糟糕天晚安 04/25 00:00
165Ffantasibear (103留言): 怎么多一只长毛猫? 04/25 00:05
166Ffantasibear (103留言): 阿苦变肥了~~~ 04/25 00:06
167FYU0121 (48留言): 其实那边总共有五只猫 04/25 00:07
168FBenbenyale (40留言): 菌友兴奋图呢 04/25 00:10
169Ffantasibear (103留言): 五只!可以当youtuber了~~ 04/25 00:13
170Ffun5566: 在刚才me po的新闻里, 问了1题几十万人考过的电学题目,第 04/25 00:16
171FYU0121 (48留言): https://i.imgur.com/9bcyNJR.jpg 菌友抓痒 04/25 00:16
172Ffun5566: 1个答对答案的 给p币 (这个板有人有读过中学吗?) 04/25 00:17
173Fstan1231 (105留言): ㄆ玉说好的喝茶ㄋ 04/25 00:19
174FYU0121 (48留言): 我有喝呀 21000日币/30min 04/25 00:28
175Fstan1231 (105留言): 我说请我喝 04/25 00:29
176FYU0121 (48留言): 你自己买张机票趣喝 04/25 00:31
177Fstan1231 (105留言): ZZ 04/25 00:32
178FBenbenyale (40留言): 没钱请史丹 04/25 00:35
179FYU0158: YU0121一出桶就一堆废文 04/25 00:42
180FYU0158: 只好再检举一次 04/25 00:43
181FL1ON (174留言): 日本茶好喝吗 04/25 00:43
182FBenbenyale (40留言): 迷你玉跟屁玉不是同一人喔 04/25 00:47
184Ffantasibear (103留言): 好甜的颜色~~~~ 04/25 01:16
185FBenbenyale (40留言): 阿苦不苦了 有幸福 04/25 01:17
186FL1ON (174留言): 我是不是很没同理心?看到自称忧郁症的直接叫他滚?而且觉得 04/25 02:06
187FL1ON (174留言): 很麻烦不想接近这种人 04/25 02:06
188FL1ON (174留言): 我也只想说,怎么说要死还没去死咧... 04/25 02:08
189FL1ON (174留言): 觉得,自己变得hen残忍 04/25 02:09
190Fyorkyoung (52留言): QQ 04/25 02:55
191Ffantasibear (103留言): 你最近很中二www 压力要记得宣泄~~ 04/25 03:03
192Ffantasibear (103留言): 我之前有段时间也会这样 04/25 03:04
193Ffantasibear (103留言): 来去看灵探 04/25 03:13
194FL1ON (174留言): 好 。 白天的工作其实让我改变不少ㄌ 04/25 03:18
195FHyver (42留言): 大笨鸟好吵啊啊啊啊啊啊 04/25 04:32
196FHyver (42留言): 呜呜呜呜呜什么啦要呜去没人的地方呜啦 04/25 04:32
197FL1ON (174留言): 拍拍 04/25 05:00
198Finvidia (28留言): 姆咪 >_< 04/25 05:39
199FL1ON (174留言): 显卡姆咪姆咪 04/25 05:51
200Finvidia (28留言): 狮子酱 安安姆咪 04/25 06:02
201FL1ON (174留言): https://i.imgur.com/ECzjsGQ.jpg 姆咪姆咪 04/25 06:12
202Fyorkyoung (52留言): 早安姆咪^0^ 04/25 06:14
203FL1ON (174留言): 约克羊姆咪姆咪 04/25 06:19
204Fiovoecu (10留言): 不准姆咪 04/25 06:42
205FL1ON (174留言): iou 姆咪姆咪 04/25 07:14
207Fdan5120 (98留言): 姆咪姆咪 04/25 08:32
208FL1ON (174留言): 宅亚 丹丹 姆咪姆咪 04/25 08:32
209Fasiasssh (45留言): 帮我看一下 美股跌多少 04/25 08:37
211FL1ON (174留言): 跌500时我就放鞭炮ㄌ 收盘应该跌400多 04/25 09:01
212FL1ON (174留言): 史丹姆咪姆咪 04/25 09:02
215FHyver (42留言): 请问南部哪里有跟马公饭团一样好吃的店? 04/25 09:56
216FTempoStorm: 垃圾76人粉 祝某版76人粉必有报应 乡民都是垃圾 04/25 09:58
217FTempoStorm: 未来不来了 PTT果然垃圾聚集地 除了我和某些都是垃圾 04/25 09:59
218Fa98450333 (29留言): 早安 04/25 10:38
219FL1ON (174留言): 史丹 xjp 海尔 ㄈ仔 早安 04/25 10:44
220FL1ON (174留言): 节奏早安 04/25 10:44
221Fdan5120 (98留言): ㄈ仔 04/25 10:44
222Fdan5120 (98留言): 阿酱有看大谷ㄇ 被砸锅了 04/25 10:45
223FYU0121 (48留言): 茎ㄈ呢 04/25 11:22
224Fwryi1205 (41留言): 04/25 12:14
225Fstan1231 (105留言): ㄈ仔年薪千万大尾ㄌ 04/25 12:14
226Fyorkyoung (52留言): 有人可以帮我想下一篇废文主题吗 04/25 12:18
227Fiovoecu (10留言): 不准发废文 04/25 12:21
228Fwryi1205 (41留言): 午餐吃甚么之类的 04/25 12:21
229Fwryi1205 (41留言): 干 输钱 04/25 12:24
230FHyver (42留言): 动物叫声文 04/25 12:29
231FL1ON (174留言): 丹丹 我上班在忙,没跟到QQ 04/25 12:46
232FL1ON (174留言): 爱玉 ryo1205早安 04/25 12:46
234FL1ON (174留言): xjp 这个好笑 04/25 13:18
235FWaitaha: 佛剑分说#3659 04/25 13:56
236FYU0121 (48留言): https://i.imgur.com/EPYmWI1.jpg 菌友吐血了 04/25 13:56
237FL1ON (174留言): 为什么吐血ㄋ 04/25 13:59
238Fa98450333 (29留言): 你能不好好工作不要宅啊 04/25 14:06
239FGalLe5566 (122留言): 不是我爱说 猫咪可不可爱 脸型占了一半 04/25 14:06
240FHyver (42留言): 这猫好可爱,随时哀怨 04/25 14:13
241FL1ON (174留言): 给力早安 ㄈ仔我记得爱玉好像也是有钱人ㄋ 04/25 14:13
242Ffantasibear (103留言): 昨夜下了雨好舒服,我竟然睡到现在 04/25 14:16
243Ffantasibear (103留言): 这阵子睡眠实在太差太差了 04/25 14:16
245FL1ON (174留言): 幻熊睡好晚 我要来去 跑步惹。 04/25 14:19
246FL1ON (174留言): 上班上到一半可以跑步 我觉得我也满屌的 04/25 14:20
247FL1ON (174留言): 约克羊你可以发 你敢在__做什么之类的废文 04/25 14:21
248Ffantasibear (103留言): 我几乎睡11小时,超屌 04/25 14:22
250Ffantasibear (103留言): 以后猫咪只准拍苦脸,这才是最美的 04/25 14:34
251Ffantasibear (103留言): 说到梦,我每天都去一个地方玩ㄟ 刚才在布拉格 04/25 14:38
253Fxjp004123 (37留言): 苦脸是什么 04/25 14:50
255FYU0121 (48留言): 山猪 04/25 14:51
256Fstan1231 (105留言): ㄆ玉 04/25 14:53
257Fstan1231 (105留言): ㄆ玉选版主 我赞助500p 04/25 14:54
258FYU0121 (48留言): 我要当站长 04/25 14:55
259Fstan1231 (105留言): 好罩我 04/25 14:59
260Fa98450333 (29留言): 你这老屁股 滚吧 04/25 15:01
261FL1ON (174留言): ㄆ玉要参选ㄇ 04/25 15:01
262Fstan1231 (105留言): 过气板猪ㄈ仔怒呛过气板猪ㄆ玉 04/25 15:02
263Ffantasibear (103留言): 苦脸就是忧郁多愁善感的脸~~ 04/25 15:09
264FL1ON (174留言): 肥宅相轻 04/25 15:09
265Ffantasibear (103留言): 史丹的橘橘欠三杯 04/25 15:09
266FYU0121 (48留言): 老ㄈ呢 04/25 15:30
267Fdan5120 (98留言): 靠杯 闪掉八卦板的 棒球板就被雷到 干干干 04/25 15:53
269FL1ON (174留言): xjp 晚安 我玩爽惹 睡一下 04/25 16:04
270Ffantasibear (103留言): 晚安安安安 04/25 16:07
271FL1ON (174留言): 阿 丹丹,我有爆雷,不要看我的文,也不要看棒球版索尔那篇 04/25 16:13
272FL1ON (174留言): 对不起QQ 04/25 16:13
273Fdan5120 (98留言): 干 就那篇r 04/25 16:16
274FL1ON (174留言): QQ 对不起 04/25 16:18
275Fdan5120 (98留言): 所以说索尔和浩克真的QQ了吗 04/25 16:19
276FL1ON (174留言): 阿灾 我也是听ㄉ 晚安 04/25 16:21
277FL1ON (174留言): 应该没吧 ps4游戏还在卖呢(? 04/25 16:21
278Fwryi1205 (41留言): 干 04/25 16:55
279Fkiminocodo (19留言): 我爱你 呜嘻 嘻呜 04/25 17:23
280Fwryi1205 (41留言): 母汤 04/25 17:27
281FGalLe5566 (122留言): 好 这个可以有 04/25 17:31
282Fasiasssh (45留言): https://i.imgur.com/UYhvHFr.jpg 压力山大 04/25 17:34
283FGalLe5566 (122留言): 这种机械式的动作 你写一个小精灵来帮你刷不就好了... 04/25 17:35
284Fasiasssh (45留言): https://i.imgur.com/kfJJ2UU.jpg 目前练这几只 加油 04/25 17:35
285Fasiasssh (45留言): 手动练的才有感情 04/25 17:36
286FGalLe5566 (122留言): 好吧 04/25 17:36
287Fa98450333 (29留言): 安安 04/25 18:08
288Fwryi1205 (41留言): 热 04/25 18:17
289Fstan1231 (105留言): 肥物给丽菜 04/25 18:28
290FBenbenyale (40留言): 身无可恋 04/25 18:31
291FGalLe5566 (122留言): 朕在 如何? 04/25 18:42
292FYU0121 (48留言): 黄ㄈ刚刚私讯我说他确认已经安装adsl了 04/25 18:49
293FGalLe5566 (122留言): 原来如此 嫖太大了 04/25 18:50
294Fxyz4594 (18留言): 黄ㄈ,不要用台湾健保拿药,你是中国人 04/25 19:14
295Fstan1231 (105留言): 给丽菜ㄋ 04/25 19:16
296Fxyz4594 (18留言): 给力哥刚刚被我干到哭出来,现在在洗澡 04/25 19:22
297Fasiasssh (45留言): 问一下 大明狐跟月明狐那个好用啊 04/25 19:32
298Fasiasssh (45留言): 还是小黑配明狐比较好 04/25 19:33
299Fwryi1205 (41留言): 把游戏砍掉比较好 04/25 19:37
300Fa98450333 (29留言): 靠北喔 你也是中国人啊 你不支持92狗屎吗? 04/25 19:59
301Fstan1231 (105留言): 弓明湖比较好用 04/25 19:59
302FBenbenyale (40留言): 黄ㄈ回台湾投淫文 支持九二统一 04/25 20:03
303Fxyz4594 (18留言): 黄ㄈ,多骂点,你好久没骂我了 04/25 20:05
304Fwryi1205 (41留言): 干 04/25 20:13
305FBenbenyale (40留言): 我帮黄ㄈ打 04/25 20:15
306FYU0121 (48留言): 山猪ㄈ呢 04/25 20:18
307FSkydier (44留言): 干你老师京都10月开始收住宿税 04/25 20:33
308FMews (32留言): 不爽去垦丁啊 04/25 20:49
309FGalLe5566 (122留言): 可是你不去垦丁就没人买玉米了 04/25 20:51
310FSkydier (44留言): 我来恒春第4天了 只在那边待2小时 04/25 20:51
311FSkydier (44留言): 真他妈人有够多又脏又乱 04/25 20:51
312FGalLe5566 (122留言): 你为什么到处跑QQ 04/25 20:51
313FSkydier (44留言): 哪里有网路线和浴室 哪里就是家 04/25 20:54
314FGalLe5566 (122留言): 我,就是网路线 04/25 20:57
315FSkydier (44留言): == 04/25 21:00
316Fgod060119 (17留言): 不行 我觉得太快把运气消费完了 04/25 21:01
317Fasd159g: 求上车 04/25 21:02
318FGalLe5566 (122留言): 还好 我无课就抽到二号机了 04/25 21:02
319FMews (32留言): 宅利不意外 04/25 21:07
320FBenbenyale (40留言): sky哥哥帮我定义家了 就是网路电脑以及浴室ㄟ 04/25 21:20
322Fwryi1205 (41留言): 04/25 21:44
323FGalLe5566 (122留言): 这个可以有 这眼睛很漂亮 04/25 21:49
324Fwryi1205 (41留言): 求下车 04/25 21:51
325Fmeowchen (18留言): 累 04/25 21:53
326Fstan1231 (105留言): 给丽菜 04/25 22:18
327FGalLe5566 (122留言): 嗨史坦 04/25 22:20
328Ffantasibear (103留言): 喵~~~~~~~~~~~~ 04/25 22:23
329FBenbenyale (40留言): 拔河啰 04/25 22:26
330Fwryi1205 (41留言): 我快热死ㄌ 04/25 22:30
331FMews (32留言): 脱吧 记得拍照上传 04/25 22:35
332Fstan1231 (105留言): 给力肥ㄋ 04/25 22:37
333Fcynthia0620 (46留言): 不会用电脑贴图:(((((((((发了文被笑了 04/25 22:41
334Fcynthia0620 (46留言): 我再也不用电脑贴图惹 04/25 22:42
335FMews (32留言): 谁笑你 我帮你笑回去 04/25 22:42
336Fcynthia0620 (46留言): 呜呜呜我删掉了 04/25 22:43
337Fcynthia0620 (46留言): 本来想分享一下我看到笑到快岔气的翻拍剧 04/25 22:44
338FMews (32留言): 你可以重发 04/25 22:46
339Fcynthia0620 (46留言): 我玻璃心啦不想发了,继续看日剧 04/25 22:47
340Fcynthia0620 (46留言): 说真的,好想改掉玻璃心的怀习惯喔 04/25 22:50
341Fcynthia0620 (46留言): 没胆又玻璃心又爱耍边缘,没救了 04/25 22:50
342Finvidia (28留言): 先练习发姆咪文 04/25 22:53
343Fcynthia0620 (46留言): 不要姆咪 04/25 22:54
344Fyorkyoung (52留言): 先练习发约克文 04/25 22:54
345Fwryi1205 (41留言): ? 04/25 22:55
346Fcynthia0620 (46留言): 也不要约跑文 04/25 22:55
347Finvidia (28留言): 那约克姆咪文 04/25 22:57
348Fyorkyoung (52留言): :( 04/25 22:57
349Fmeowchen (18留言): 那约克女仆文 04/25 22:58
350Fcynthia0620 (46留言): 那你发给我看:) 04/25 22:58
351Fcynthia0620 (46留言): 阿对了,要来看jojo了 04/25 22:59
352FYU0121 (48留言): https://i.imgur.com/ODHLerQ.jpg 菌友拉屎 04/25 23:05
353Fyorkyoung (52留言): ^0^ 04/25 23:10
354Fxyz4594 (18留言): 我勃起了 04/25 23:11
355FYU0121 (48留言): 黄ㄈ用adsl舌头帮你吸 04/25 23:15
356FGalLe5566 (122留言): 他的脸真的好苦 04/25 23:17
358Fxyz4594 (18留言): 没关系,口交感染机率很低 04/25 23:20
359FGalLe5566 (122留言): 冏脸猫 04/25 23:21
360Fpengjoker (6留言): 好饿 04/25 23:25
361Fcynthia0620 (46留言): 他的脸好可爱 04/25 23:25
362Fyorkyoung (52留言): 去吃消夜 04/25 23:25
363Fyorkyoung (52留言): 宵夜 04/25 23:25
364Fstan1231 (105留言): 给粒废 04/25 23:30
365Fstan1231 (105留言): 夜市烤玉米超贵!一支等同便当价 废物玉米哥一支500圆 04/25 23:31
366FL1ON (174留言): 我 就是宵夜 04/25 23:33
367FYU0121 (48留言): 宵ㄈ呢 04/25 23:57
368Fxyz4594 (18留言): 我想无套做 04/26 00:00
369Ffantasibear (103留言): 累死了,我脖子快断了 04/26 00:08
370Fcynthia0620 (46留言): 动一动 04/26 01:08
371FL1ON (174留言): 这两天一直拉肚子 04/26 01:25
372Ffantasibear (103留言): 拉肚子大概是天气变化 04/26 01:43
373Ffantasibear (103留言): 我今天也拉 04/26 01:44
374Fcynthia0620 (46留言): 一喝奶茶必拉肚子,不喝就便秘 04/26 01:51
375Fdan5120 (98留言): 看完午夜场 可以放心上ptt了 04/26 01:51
376Fcynthia0620 (46留言): 我都差不多被剧透完了 04/26 01:52
377Fdan5120 (98留言): 死的都是意想不到的 上面都假雷 04/26 01:52
378FBenbenyale (40留言): 又是睡不著的一天 04/26 01:53
379Fdan5120 (98留言): 不错看 看之前很困但看完全场没冷场 04/26 01:53
380Fcynthia0620 (46留言): 好,我今天晚上去看 04/26 01:54
381Fcynthia0620 (46留言): 赶快睡著吧 04/26 01:55
382Fdan5120 (98留言): 考完ㄌ喔 04/26 01:56
383Fcynthia0620 (46留言): 考完了 04/26 01:56
384Fcynthia0620 (46留言): 坏狗狗是什么时候出来的梗啊 04/26 01:57
385FL1ON (174留言): 去ㄅ 我在等爆雷文欸 04/26 01:57
386Fdan5120 (98留言): 坏狗喔 反派那边的喽喽吧 04/26 02:12
387Fdan5120 (98留言): 看错== 04/26 02:12
389Fdan5120 (98留言): 肥物 04/26 02:17
390Fcynthia0620 (46留言): 谁是真正的坏狗狗 04/26 02:17
391FGalLe5566 (122留言): 可以 这个可以有 猫胸肉 04/26 02:21
392Fyorkyoung (52留言): 坏猫猫 04/26 02:38
393Ffantasibear (103留言): 史丹猫ㄎㄧㄤ掉了......... 04/26 02:46
394Fgod060119 (17留言): 可恶 好可爱 04/26 03:58
395Finvidia (28留言): 姆咪 O_O 04/26 06:17
396Fiovoecu (10留言): 不准ㄎㄧㄤ 04/26 06:20
397Fawfulday (8留言): 还有21天才能在nba板讲话,唉菜逼八QQ 04/26 06:58
398Fawfulday (8留言): 对了,今天真是早安 04/26 06:58
400FHyver (42留言): 凹凹凹凹凹凹凹凹凹凹 04/26 08:20
401FHyver (42留言): 凸凸凸凸凸凸凸凸 04/26 08:21
403Fxjp004123 (37留言): 熟女与妹妹的脚 04/26 09:01
404Fxjp004123 (37留言): 话说最近一直把自己包得很紧,跟伊斯兰妇女一样,最好 04/26 09:02
405Fxjp004123 (37留言): 大家都不要看到我,还戴著手套 04/26 09:02
406Fxjp004123 (37留言): 最好大家都忽略我 04/26 09:03
407FL1ON (174留言): 喂 高雄那么热,你是想中暑腻? 04/26 09:05
408FL1ON (174留言): 还有,你是男孩纸,包的跟女森一样干嘛 04/26 09:05
409FL1ON (174留言): 糟糕天 海尔 xjp 早安 04/26 09:05
410FMews (32留言): 所以你就是熟女 04/26 09:19
411Fmeowchen (18留言): 早晨喵 04/26 09:20
412FMews (32留言): 谁可以爆一下复仇者3的雷在这里 04/26 09:21
413Fwryi1205 (41留言): 热 04/26 09:27
414Fawfulday (8留言): 艾斯死了!!恸 04/26 09:56
415Fawfulday (8留言): 我雷完了 04/26 09:57
417Fasiasssh (45留言): 为什么一堆人看到雷就要7pupu 莫名奇妙 04/26 10:20
418Fmeowchen (18留言): 人人都4潜水艇 被爆雷攻击衣服会大破 穿死库水很不方便 04/26 10:25
419FL1ON (174留言): 哇靠 我詹carry全场 绝杀三分 干! 04/26 10:46
420FL1ON (174留言): 海鸟 喵陈 宅亚 ryi1205 I早安 04/26 10:47
421FL1ON (174留言): 史丹早 04/26 10:47
422Ffantasibear (103留言): 大家早安! 连续梦,在东欧玩差点搭到去莫斯科的车 04/26 11:04
423Fxjp004123 (37留言): 材质很凉很舒服,话说熟女是以下图片 04/26 11:09
424Fxjp004123 (37留言): https://i.imgur.com/mmDHzhc.jpg 左边猫妈妈 04/26 11:10
425Fxjp004123 (37留言): 包起来大家才看不到我,我只想给女友看到我的肌肤 04/26 11:10
426Ffantasibear (103留言): 妈妈又怀孕了!? 04/26 11:12
427Ffantasibear (103留言): 有地震=_= 04/26 11:13
428Ffantasibear (103留言): 但感觉是从南边传来的 04/26 11:14
429Fcynthia0620 (46留言): 哪里有地震 04/26 11:18
430FMews (32留言): 我的心 04/26 11:19
431Fyorkyoung (52留言): 因为你而产生地震 04/26 11:21
432Frainxo6p: 有地震没错...只是没人发 04/26 11:32
433Fxyz4594 (18留言): 想被黄ㄈ用观音坐莲摇到射 04/26 11:40
435Fxjp004123 (37留言): 没啊熟女只是很胖 04/26 12:37
436Fyorkyoung (52留言): 有谁出来打球的 04/26 13:25
437Fdan5120 (98留言): 变冷了打什么球喇 04/26 13:33
438Fcynthia0620 (46留言): 我只是要嘘88而已为什么给我寄连结了 04/26 13:40
439Fdan5120 (98留言): 哪篇 好康的吗 04/26 13:45
440Fcynthia0620 (46留言): 对我来说不是 04/26 13:48
441Fwryi1205 (41留言): 热 04/26 13:58
442FMews (32留言): 宅利呢 给我出来 04/26 14:07
443FGalLe5566 (122留言): 怎么? 04/26 14:26
444Fa98450333 (29留言): 喔 04/26 14:44
445FL1ON (174留言): 幻熊 辛西亚 约克羊 雨XO 玉米哥 丹丹 给力 黄ㄈ 早安 04/26 14:47
446FL1ON (174留言): xjp你还好吗?〉 04/26 14:56
447Fprog: 宅鸟快去工作 04/26 15:07
448FL1ON (174留言): prog帅哥又提醒宅鸟不要宅ㄌ 04/26 15:38
449FL1ON (174留言): 晚安 休息一下 04/26 15:38
450Fbadbadook (6留言): 约 泡 ? 04/26 15:39
451Fprog: 当然我是为他好 04/26 15:51
452FMews (32留言): 尼特族少在那边装好人 先为了你爸妈好吧 04/26 15:52
453Ffantasibear (103留言): 不要起蒸液 https://i.imgur.com/ynylce8.jpg 04/26 15:58
454Fwryi1205 (41留言): 04/26 16:18
455Fdan5120 (98留言): 肛 04/26 16:19
456FBenbenyale (40留言): J. Buckley - Last Goodbye 04/26 17:13
457Fpengjoker (6留言): 给莉呢 04/26 17:50
458Ffantasibear (103留言): 给莉在山崖下 04/26 17:53
459Fwryi1205 (41留言): 04/26 18:19
460FGalLe5566 (122留言): 我不在这里,我所在之处,乃是理想与幻想的终结。 04/26 18:20
461FYU0121 (48留言): https://i.imgur.com/yd6MghV.jpg 菌友罚站 04/26 18:21
462FGalLe5566 (122留言): 苦脸猫 04/26 18:23
463FGalLe5566 (122留言): 见鬼了 高文为什么这么强 04/26 18:35
464Fabcstandup: 军兰州拉面 04/26 18:41
465Ffantasibear (103留言): 阿苦该理毛了~~ 04/26 18:48
466FHyver (42留言): https://goo.gl/eTuNMP 5j/ 中间表示 无奈 04/26 18:59
467FHyver (42留言): 苦脸猫咪好可爱 04/26 19:00
468Fdan5120 (98留言): 猫 04/26 19:07
469FYU0121 (48留言): https://i.imgur.com/nvL5Wus.jpg 菌友洗澡 04/26 19:14
470Ffantasibear (103留言): 刺猬。ㄏㄏ 04/26 19:16
471Fdan5120 (98留言): 猫好像有点年纪了 04/26 19:17
472FYU0121 (48留言): 他不是猫 他是狗 04/26 19:43
473Ffantasibear (103留言): 有够乖~~ 04/26 19:44
474FHyver (42留言): 为什么是狗? 04/26 19:51
475FBenbenyale (40留言): 菌友毛 04/26 19:54
476Finvidia (28留言): 因为菌友阿 04/26 19:54
477FYU0121 (48留言): 长这样你跟我说他是猫 该去看动物百科全书了 04/26 19:57
478Fwryi1205 (41留言): 04/26 19:57
479FSkydier (44留言): 红ㄈ密我说那只是狗 04/26 20:06
480FHyver (42留言): 好! 他是狗,我太笨惹对不起 04/26 20:12
481Fcynthia0620 (46留言): 好,我看完了 04/26 20:14
482FHyver (42留言): 楼上看复仇者3呕 04/26 20:14
483Fwryi1205 (41留言): 04/26 20:55
484Fdan5120 (98留言): 天R 乐事的炙烤番茄好好ㄘ喔 04/26 21:28
485Fcynthia0620 (46留言): 好险我有做好心里准备 04/26 21:36
486Fdan5120 (98留言): 好险啥 04/26 21:37
487FBenbenyale (40留言): 你知道吗 猫耳内耳也有长毛突出来 04/26 21:46
488Fcynthia0620 (46留言): 我没有雷别人的兴趣啦 04/26 21:47
489FGalLe5566 (122留言): 我比较喜欢无毛的 04/26 21:50
491Finvidia (28留言): 这张不4贴过ㄌ? 04/26 22:04
492Fdan5120 (98留言): 所以妹子去看了ㄛ 04/26 22:05
493Ffantasibear (103留言): 给莉要的无毛啊 04/26 22:05
495FGalLe5566 (122留言): 他长得好奇怪... 04/26 22:10
496FGalLe5566 (122留言): 肥的我可以 这坨肥到连脖子都消失了欸... 04/26 22:11
497Fgod060119 (17留言): 蚁人死了!!! 04/26 22:17
499Fgod060119 (17留言): 金钢狼也死了 不过彩蛋有蝙蝠侠 看来是下一集的英雄 04/26 22:23
500FGalLe5566 (122留言): 澄澄 你这样姆汤 04/26 22:25
501Fdan5120 (98留言): 大班蝙蝠侠超粪 看不到诺兰三部曲车尾灯 04/26 22:25
502Finvidia (28留言): 被雷ㄉ不就省下电影票钱了ㄇ 04/26 22:26
503Fpengjoker (6留言): https://i.imgur.com/YcORhYb.jpg 04/26 22:29
504FGalLe5566 (122留言): 这不是猫 04/26 22:30
505Fgod060119 (17留言): 换个角度想 大家会想进去电影院看金钢狼怎么死的啊 04/26 22:31
506Fstan1231 (105留言): 给粒废 04/26 22:32
507FGalLe5566 (122留言): 嗨是淡 04/26 22:33
508Fstan1231 (105留言): 第六章打玩了没 04/26 22:34
509FGalLe5566 (122留言): 正在噜 第九章了 有够啊砸的 04/26 22:34
510Fwryi1205 (41留言): 恶 04/26 22:35
511FGalLe5566 (122留言): 你打完了喔? 04/26 22:35
512Fgod060119 (17留言): 恩 用了三张卫生纸 04/26 22:39
513FGalLe5566 (122留言): 原来如此 04/26 22:39
514Fgod060119 (17留言): 有没有开VPN跳到欧洲就很容易抽到5星的八卦? 04/26 22:41
515FGalLe5566 (122留言): 没有 我无课就抽到两只超激EVA猫 04/26 22:46
516Fstan1231 (105留言): 废物 04/26 22:46
517Fstan1231 (105留言): 我打到第三张 04/26 22:47
518FGalLe5566 (122留言): 原来如此 04/26 22:48
519FQBian: 想被姆咪用绳子捆绑 04/26 23:01
520Fkyozwhie: 有幻觉吗? 04/26 23:02
521FBenbenyale (40留言): 原来如此 可是我还不会束缚术 04/26 23:06
522FYU0121 (48留言): 菌友呢 04/26 23:10
523FWhitedew: 各位晚安 04/26 23:20
524Fmeowchen (18留言): 晚安 04/26 23:22
525Fxyz4594 (18留言): 我 04/26 23:41
526Fxyz4594 (18留言): 是 04/26 23:41
527Fxyz4594 (18留言): 一 04/26 23:41
528Fxyz4594 (18留言): 个 04/26 23:41
529Fxyz4594 (18留言): 帅 04/26 23:42
530Fxyz4594 (18留言): 哥 04/26 23:42
531FYU0121 (48留言): 吉 04/26 23:44
532FYU0121 (48留言): 拉 04/26 23:44
533Fcoon182: 屎 04/26 23:49
534FYU0121 (48留言): 君 04/26 23:51
535FP2P (12留言): ====================断=========================== 04/26 23:53
536FQBian: 姆咪可爱 04/27 00:38
537FGalLe5566 (122留言): 谁跟你老人臭= = 04/27 00:44
538FSkydier (44留言): (捏鼻) 04/27 00:45
539FGalLe5566 (122留言): 你在那边装可爱呕呕呕呕 04/27 00:47
540Fstan1231 (105留言): 给丽菜 04/27 00:49
541FGalLe5566 (122留言): ? 04/27 00:50
542FP2P (12留言): 请问笔电有耐重限制吗 上面躺著一只5kg的猫 请问单兵如何处置 04/27 00:53
543FGalLe5566 (122留言): 理论上来说 只要外壳没被压到变型就没差 还有图呢 04/27 00:54
544Fdan5120 (98留言): 有猫毛 都死得很快啦 04/27 00:56
545FP2P (12留言): https://i.imgur.com/ZKjXKhR.jpg 04/27 00:59
546Fstan1231 (105留言): 给丽菜 04/27 00:59
547FGalLe5566 (122留言): 好 可以 这个可以有 这种的我喜欢 04/27 01:00
548FGalLe5566 (122留言): 这种毛色超漂亮的 04/27 01:00
549FGalLe5566 (122留言): 史丹怎么? 04/27 01:00
550FP2P (12留言): https://i.imgur.com/5aZV4uW.jpg 04/27 01:02
551FGalLe5566 (122留言): 好 这个脸型也很漂亮 而且还有白袜子 04/27 01:02
552FMews (32留言): 宅利你是不适想舔 04/27 01:11
553FGalLe5566 (122留言): = = 04/27 01:12
554FGalLe5566 (122留言): 妳不会觉得看起来很好舔吗...毛茸茸的欸... 04/27 01:12
555FMews (32留言): 宅利不意外 04/27 01:19
556Fpengjoker (6留言): 恶 04/27 01:29
557FL1ON (174留言): 我家以前的美短也很爱躺笔电 04/27 01:34
559FGalLe5566 (122留言): 这是狗 04/27 01:43
561FP2P (12留言): 好爽噢 六抽中莫比+哈渤 04/27 02:20
562Ffantasibear (103留言): 我家这个月爆炸了干!白痴家人 04/27 03:36
563Fdan5120 (98留言): 老杯吗 04/27 03:56
564Ffantasibear (103留言): 我老杯已经死13年了 04/27 04:00
565FL1ON (174留言): 头好痛 04/27 04:36
566Fgod060119 (17留言): 真的好可爱 我快要 把持不住了 04/27 05:25
567Fiovoecu (10留言): 不准忍不住 04/27 06:19
568Finvidia (28留言): 今天终于没有提早醒来惹 口米女母 04/27 06:36
569FL1ON (174留言): 澄澄 iou 显卡 姆咪姆咪 04/27 06:52
570FHyver (42留言): 早安,有人看得懂日文吗?丢狗狗翻译还是看不懂.. 04/27 07:27
571FHyver (42留言): フォロー解除します悪しからず ←跪求日文高手,谢谢 04/27 07:38
572FL1ON (174留言): 先解除锁定,再按热开水 04/27 07:40
574FSkydier (44留言): 解除追随不要见怪 04/27 08:09
575FGalLe5566 (122留言): 可我会见怪 04/27 08:11
576FGalLe5566 (122留言): 我,就是怪 04/27 08:11
577Fwryi1205 (41留言): 干 04/27 08:11
578FSkydier (44留言): 一大早是在公沙小 04/27 08:12
579FGalLe5566 (122留言): 早啊 04/27 08:12
580FSkydier (44留言): 你好 04/27 08:14
581FHyver (42留言): 谢谢史盖 04/27 08:16
582Fdtlove17: 废物删文删那么快 04/27 08:23
583Fwryi1205 (41留言): 垃圾游戏 04/27 08:24
584FWhitedew: 早Y 04/27 08:38
585FL1ON (174留言): 海尔 天哥 给力 ryi1205 白白 早安 04/27 09:32
586FL1ON (174留言): https://i.imgur.com/MoeoSt7.jpg 姆咪姆咪 04/27 09:34
587FL1ON (174留言): dt爱早安 04/27 09:34
588Fcynthia0620 (46留言): 好爽,体育课放三个礼拜 04/27 09:48
589Fcynthia0620 (46留言): 我可以三个礼拜只上四天课了嘻嘻 04/27 09:49
590Fmeowchen (18留言): 早晨喵 04/27 09:59
591FMews (32留言): 干脆都不要去吧 暑假开始了 04/27 10:01
592FL1ON (174留言): 辛西亚 喵陈 宅鸟早。辛西亚,男孩纸要多运动啊 04/27 10:04
593Ffantasibear (103留言): 睡不好:( 梦里都在发脾气...... 04/27 10:20
594Ffantasibear (103留言): 不过今晚我去冲绳玩 04/27 10:21
595FL1ON (174留言): 好 04/27 10:37
596FL1ON (174留言): 早安 04/27 10:37
597Ffantasibear (103留言): 梦醒了,已经回台湾 04/27 10:51
598Ffantasibear (103留言): 早安狮子,还没睡呀? 04/27 10:51
600FL1ON (174留言): 上班 忙欸 04/27 11:38
601Fdan5120 (98留言): 肛 04/27 11:59
602Fgod060119 (17留言): 罗马枪骑兵 04/27 12:01
603FMews (32留言): 宅利勒 04/27 12:24
604Fstan1231 (105留言): 吃屎 04/27 12:25
606Fasiasssh (45留言): ㄌㄌㄎ 04/27 12:34
608FBenbenyale (40留言): 莫西干猫 04/27 12:48
609Fyorkyoung (52留言): 早安 04/27 13:32
610Fdan5120 (98留言): 羊仔打球 04/27 13:37
611Fyorkyoung (52留言): 羊羊不喜欢打球:( 04/27 13:41
612Fyorkyoung (52留言): 辛西亚比较喜欢 04/27 13:41
613Fiovoecu (10留言): 不准不喜欢 04/27 13:51
614Ffantasibear (103留言): 地震好大...... 04/27 13:56
615FL1ON (174留言): 推 yorkyoung: 五楼会炸自己懒叫 04/27 14:23
616Fyorkyoung (52留言): :( 04/27 15:15
617FL1ON (174留言): 睡一下 04/27 15:31
618FL1ON (174留言): 斑斑 宅亚 早安 04/27 15:31
619FL1ON (174留言): 丹丹 澄澄 早安 04/27 15:32
620FL1ON (174留言): 史丹早安。你的猫呢?xjp和他的猫呢 04/27 15:32
621FL1ON (174留言): 辛西亚 约克羊来踢球 04/27 15:34
622Fdan5120 (98留言): 阿酱晚安 04/27 16:06
623Fstan1231 (105留言): 废物 04/27 16:13
624FBenbenyale (40留言): 快速国军入伍 accelerated National army recruit 04/27 16:43
626Fwryi1205 (41留言): 猫 04/27 16:50
628FHyver (42留言): 靠杯那是狗! 04/27 17:24
631FGalLe5566 (122留言): 没有蓝卡队噜50回合噜不过的关卡 如果有 那就噜60回合 04/27 18:06
632Fstan1231 (105留言): 给粒废 噜三小 04/27 18:09
633Fkiminocodo (19留言): 欸欸欸史丹!骂我废好不好,拜托~ 04/27 18:10
634FGalLe5566 (122留言): 第六章啊 噜玩了 剩下自由关卡 04/27 18:10
635Fkiminocodo (19留言): 我想要被你骂>\\\\\< 04/27 18:11
636FGalLe5566 (122留言): 欸 对了 然后啊 我一不小心用呼福单抽白枪... 04/27 18:12
637FGalLe5566 (122留言): 原本想说噜玩了纪念抽一下 结果就... 04/27 18:12
638Fstan1231 (105留言): 吃屎 你抽不到梅琳了 04/27 18:12
639FGalLe5566 (122留言): 我是觉得萝莉应该是抽不到了就是... 04/27 18:13
640Fstan1231 (105留言): 你以后抽不到5星了 04/27 18:13
641FGalLe5566 (122留言): 安啦 这是机率学 等我魔法少女被制裁完了就没事 04/27 18:14
642FGalLe5566 (122留言): 萝莉大概抽个十抽吧 反正是被制裁用的 04/27 18:16
643FGalLe5566 (122留言): 不过我现在的石头大概够抽个30抽左右 04/27 18:17
644Fstan1231 (105留言): 吃屎 没有100抽都不叫抽 04/27 18:18
645Fpony666: \给力来一单/ 04/27 18:42
646Fkiminocodo (19留言): 干,都不理我 04/27 18:46
648Fgod060119 (17留言): 明天去抽血 04/27 19:03
649FKay731: 大家想换哪一张ANSI 04/27 19:13
650FHyver (42留言): 三熊图 04/27 19:18
651Finvidia (28留言): 拉拉熊+姆咪 04/27 20:24
652Fmeowchen (18留言): 赫萝图 04/27 20:30
653Fkiminocodo (19留言): 啊啊啊谁来理我一下啦啊啊啊 04/27 20:33
654Fdan5120 (98留言): 肥物 04/27 20:34
655Fdan5120 (98留言): 这样可以吗 04/27 20:35
656Fcynthia0620 (46留言): 破产了,可是好开心 04/27 20:47
657Fcynthia0620 (46留言): 联名商品真的很吸引人 04/27 20:47
658Fdan5120 (98留言): 潮牌喔 04/27 20:57
659Fcynthia0620 (46留言): uniqlo的jump!跟漫威联名啊 04/27 21:00
660Fdan5120 (98留言): 真ㄉ假ㄉ 好像很潮 04/27 21:02
661Fdan5120 (98留言): 只有看到jump的r 没漫威ㄉ 04/27 21:05
662Fbadbadook (6留言): 还 蛮 屌 的 04/27 21:14
663Ffantasibear (103留言): 剩三个月我要宣告破产了,赶紧赶稿 QQ 04/27 21:33
664Ffantasibear (103留言): 刚才买了笔电 04/27 21:33
665Fredtail0406: 欸欸欸 我刚刚手机剩五趴充电 直接跳68 这是怎样 04/27 21:40
666Fredtail0406: 我有先关机 04/27 21:40
667Fdan5120 (98留言): 电池坏了 帮QQ 04/27 21:41
668Fredtail0406: 可是平常不会突然掉电ㄛ 可以用很久 04/27 21:44
669Fdan5120 (98留言): HTㄈㄇ 04/27 21:46
670Fkiminocodo (19留言): 哼 04/27 21:46
671FBenbenyale (40留言): 我其中一只手机坏了 我把他原厂了 04/27 21:51
672Fredtail0406: 三星 j7还z7的样子 04/27 21:52
673Fdan5120 (98留言): 那要爆炸了 帮QQ 04/27 21:53
674FHyver (42留言): 小杰T超好看 04/27 22:48
675Fcynthia0620 (46留言): 去的时候没有看到qq 04/27 23:03
676Fdan5120 (98留言): 狗和大只海蟑螂 04/27 23:06
678Fkiminocodo (19留言): 晚安 我要睡觉惹 04/27 23:16
679FL1ON (174留言): 晚安 04/27 23:37
※ 编辑: Kay731 (36.231.86.91), 04/28/2018 00:27:24
680Fazytjr: 绿共,加油好吗? 04/28 00:37
681FMews (32留言): 刚刚发现我之前的文章底下有玛莎推文欸 赚到了 04/28 02:34
682FGalLe5566 (122留言): 真假? 04/28 02:41
683FMews (32留言): 自己去寻找吧 我的文章没很多 04/28 02:47
684FGalLe5566 (122留言): 明明就几百篇 04/28 02:50
685FGalLe5566 (122留言): 找不到 算了 然后你家的装潢看起来有够贵 好野鸟 04/28 02:52
686FMews (32留言): 那其实是你家 04/28 02:56
687Ffantasibear (103留言): 午夜前在海边散步讲电话到现在 04/28 03:02
688FGalLe5566 (122留言): 你电话费会爆 04/28 03:03
689FMews (32留言): 跟宅利的肝一样 04/28 03:04
690FGalLe5566 (122留言): 已经炸过了 04/28 03:07
691FMews (32留言): 猪肝面 04/28 03:07
692FGalLe5566 (122留言): 不行 只有猪肝的猪肝面我不接受 04/28 03:08
693FMews (32留言): 那猪肝粥 04/28 03:08
694FGalLe5566 (122留言): 什锦面里面有猪肝可以 可是整个都是猪肝就很恶 04/28 03:09
695Ffantasibear (103留言): 用脸书聊天啦 04/28 03:09
696FGalLe5566 (122留言): 那个普林高到爆吧 有痛风的人吃了应该会崩溃 我猜 04/28 03:09
697FMews (32留言): 肥宅挑什么食 滚去吃麦当劳 04/28 03:10
698Ffantasibear (103留言): 四月30,我们这庙会,打算开直播 04/28 03:10
699FGalLe5566 (122留言): 不行 现在三点 牛肉跟炸物全收了 现在只有难吃的 04/28 03:10
700FMews (32留言): 吃店员啊 04/28 03:12
701FGalLe5566 (122留言): 啊对 说到这个 我这最近来了两个很正的店员 04/28 03:14
702FMews (32留言): 图哩 04/28 03:14
703FGalLe5566 (122留言): 一个超高 只比我矮一点而已 04/28 03:14
704Ffantasibear (103留言): 腿废了我......... 走三个小时 04/28 03:29
705FL1ON (174留言): 店员图 04/28 03:29
706FL1ON (174留言): 走三小时还好ㄅ。 04/28 03:30
707FL1ON (174留言): 贴酸痛药膏啊 04/28 03:30
708FL1ON (174留言): 是说 今天我发现,我老板看我的发文科科笑,怕 04/28 03:31
709Ffantasibear (103留言): 是还好啦,只是穿拖鞋走,酸的地方怪怪的 04/28 03:46
710Ffantasibear (103留言): 睡一觉就好了,我要多散步排便才通畅 04/28 03:47
711Ffantasibear (103留言): 好久没在老家附近走那么久了,除了小时候以外 04/28 03:49
712Ffantasibear (103留言): 狮子的老板看ptt? 04/28 03:50
713Fdan5120 (98留言): 有gg蟹可以抓吗 04/28 03:50
714FL1ON (174留言): 他有用啊,我今天上班时瞄到时抖了一下。以后还是发些不正经 04/28 03:54
715FL1ON (174留言): 的好了 04/28 03:55
716Fdan5120 (98留言): 为什么他有你的id 04/28 03:55
717FL1ON (174留言): 他没有我ID,但他会逛八卦耶 乱翻文 04/28 03:59
718Ffantasibear (103留言): 你就跟他说我的id就是你啊 04/28 04:07
720Fxjp004123 (37留言): 早上被发现偷踏踏妹妹 04/28 04:19
721FGalLe5566 (122留言): 早XD 04/28 04:24
722FL1ON (174留言): 坏猫 04/28 04:26
723Fxjp004123 (37留言): 早安给力早安辐射 04/28 04:27
724FGalLe5566 (122留言): 你今天真早起 04/28 04:52
725FL1ON (174留言): 给力 粉红香莲hen可爱 04/28 05:20
726FGalLe5566 (122留言): 真的 软绵绵的 04/28 05:24
727FL1ON (174留言): 她敏捷也点的太高 我喜欢耶 04/28 05:29
728FGalLe5566 (122留言): 我还以为你不会喜欢这类型的 04/28 05:31
729FGalLe5566 (122留言): 然后我这庙会又在放鞭炮了 有没有搞错... 04/28 05:32
730FL1ON (174留言): 现在觉得不错。可能现在太累,喜欢这类型,很舒压 04/28 05:33
731FL1ON (174留言): 欸 也太夸张吧 04/28 05:34
732Fiovoecu (10留言): 不准放鞭炮 04/28 05:56
733Finvidia (28留言): 姆咪 (T_T) 04/28 07:14
734FL1ON (174留言): 姆咪姆咪 04/28 07:51
735FHyver (42留言): 楼下我爱你<3 04/28 07:57
736FL1ON (174留言): 好 04/28 08:12
737FBenbenyale (40留言): The Game 04/28 08:41
738Fsense5566 (5留言): 朵丝呢 04/28 08:57
739Fyorkyoung (52留言): 新年快乐 04/28 09:12
740FBenbenyale (40留言): 贤狼的捏捏 04/28 09:20
741FGalLe5566 (122留言): 早啊 好久不见 然后也太早了 04/28 09:22
742Fsense5566 (5留言): 等车等到想你了 04/28 09:23
743FGalLe5566 (122留言): 我,就是车 04/28 09:24
744FGalLe5566 (122留言): 等等 所以你的车是来了没啊? 也太久了吧 04/28 09:25
745Fsense5566 (5留言): 没 平交道事故 等等应该有新闻 04/28 09:27
746Fsense5566 (5留言): 我等快1小时了 04/28 09:27
747FGalLe5566 (122留言): ......你保重 04/28 09:34
748FGalLe5566 (122留言): 所以应该不是你被撞吧? 04/28 09:34
749Fsense5566 (5留言): 不是阿 我的火车跟人互撞 04/28 10:05
750Fdan5120 (98留言): 肛 04/28 10:05
751Fazt911231: https://i.imgur.com/YK3oIGp.jpg 04/28 10:28
752Fcathua: 火车延误59分钟会赔偿吗? 04/28 10:29
753Fdan5120 (98留言): 可以退票 04/28 10:32
754Fmeowchen (18留言): 喔喔 赫萝可爱 <3 04/28 10:52
755Finvidia (28留言): 打X的照片害我想到国王游戏 04/28 10:56
756Ffantasibear (103留言): 梦到一直吃芒果 04/28 11:07
757FHyver (42留言): 好羡慕,今年芒果会很便宜,如果没有台风的话 04/28 11:11
758Ffantasibear (103留言): 13小时来惹~ https://i.imgur.com/C1qKx4a.jpg 04/28 11:21
759Ffantasibear (103留言): 懒得打开...... 再补个眠 04/28 11:23
760Fstan1231 (105留言): 肥物 04/28 12:08
761Fbadbadook (6留言): gay 泡 表示 04/28 12:51
762FYU0121 (48留言): 山猪 04/28 13:18
764FL1ON (174留言): 早 等等出门去shopping 04/28 13:23
765Ffantasibear (103留言): 喵喵喵 04/28 13:26
766FL1ON (174留言): 如果我又失心疯想买什么就惨了 不带卡 带2万出门好了 04/28 13:28
767Ffantasibear (103留言): 可恶~~ 04/28 13:33
768Finvidia (28留言): 2万太多ㄌ吧 带1000就好 04/28 13:33
769FL1ON (174留言): 但我想买衣服和鞋子...1000就太少惹。我再想想好惹 04/28 13:36
770Ffantasibear (103留言): 刷卡 04/28 13:41
771Fmeowchen (18留言): 我衣服鞋子没破千过耶... 04/28 13:43
772FL1ON (174留言): 我的尺寸较小,要买女鞋,女版型裤子... 04/28 13:53
773FL1ON (174留言): 然后懒叫超迷你,嘻嘻 04/28 13:58
774Fpotionx: 有...有病属性同好会.....呃啊 04/28 14:07
775Fyorkyoung (52留言): 送我 04/28 14:12
776Fdan5120 (98留言): 肛门 04/28 14:37
777Ffantasibear (103留言): 吃大便 04/28 14:38
778FL1ON (174留言): 送我的洨 04/28 14:46
779Fcynthia0620 (46留言): 你们好恶 04/28 14:47
780Ffantasibear (103留言): 我帮你跟爱家联盟检举,让神来教训他们! 04/28 14:54
781FL1ON (174留言): 置底好脏 04/28 15:13
782Fdan5120 (98留言): 附近美术馆公园在办活动好吵 不过好多萝莉 04/28 15:24
783Ffantasibear (103留言): 哪个美术馆 04/28 15:26
784Fdan5120 (98留言): 台东 04/28 15:27
785Fmeowchen (18留言): 以为是高雄的 04/28 15:31
786Fdan5120 (98留言): 原来4家扶办的儿童保护日 04/28 15:33
787Ffantasibear (103留言): 那个美术馆好多位置可以坐,一定一堆人 04/28 15:36
788Ffantasibear (103留言): 但我还是喜欢海边,只是再也没机会去了 04/28 15:36
789FBenbenyale (40留言): 眼睛累了 04/28 15:37
790Fdan5120 (98留言): 台东离海很近阿 04/28 15:37
791FL1ON (174留言): 丹丹休息 台东都是海啊我觉得 04/28 15:41
792Fdan5120 (98留言): 阿酱家扶可以捐ㄇ 04/28 15:48
793FL1ON (174留言): 可以啊 我都去便利商店去机器按捐款的 04/28 16:01
794Fstan1231 (105留言): 肥物们 04/28 16:01
795Ffantasibear (103留言): 笔电登入嘘 04/28 16:25
796Ffantasibear (103留言): 晚上要把小笔电和随身碟的资料传到大笔电惹~~ 04/28 17:33
797Fdan5120 (98留言): 姐买哪牌的 04/28 17:37
798Fgod060119 (17留言): 以后我都要开vpn玩== 04/28 17:44
800FYU0121 (48留言): 山猪 04/28 18:14
801FL1ON (174留言): 幻熊那台满便宜的 04/28 18:30
802Ffantasibear (103留言): 是啊~~ 发现特价不少,直接尻下去了 04/28 19:10
803Fwoopoo: 怪声音,下去冰 04/28 19:11
804Fbadbadook (6留言): 还 蛮 屌 的 04/28 19:22
805Fstan1231 (105留言): 约ㄆ玉 04/28 19:37
806Fa98450333 (29留言): 操 04/28 19:59
807FP2P (12留言): 干 又被自己帅到 04/28 20:07
808Fmeowchen (18留言): 被自己帅到应该是p2q 04/28 20:14
809Fdavidho: 玩汤姆熊换几百块的都是什么人? 04/28 20:31
810FYU0121 (48留言): 山豚 04/28 20:31
811FBenbenyale (40留言): 千万母汤将阮放 04/28 20:36
812Fdan5120 (98留言): 楼下是帅哥ㄇ 04/28 20:36
813Fjaychou515: 玩姆咪换几百块的都是什么人? 04/28 20:43
814FHyver (42留言): 一直冒充我金城武名号的都是什么人 04/28 20:52
815Fstan1231 (105留言): 肥物 04/28 21:42
816Fdan5120 (98留言): 骑4和溜马该压谁ㄋ 04/28 21:57
817Fa98450333 (29留言): 喔 04/28 22:11
818Fdan5120 (98留言): ㄈ仔 04/28 22:13
819Fa98450333 (29留言): 安安 04/28 22:18
820Fasiasssh (45留言): 呜呜 已经2天没时间刷绊了 04/28 22:21
821Fstan1231 (105留言): ㄈㄈ仔 04/28 22:22
822FYU0121 (48留言): 茶ㄈ 04/28 22:37
823FBenbenyale (40留言): 黄ㄈ5/1放假 04/28 22:57
824Fasiasssh (45留言): 这次长草只刷了7万绊 04/28 22:58
825Fa98450333 (29留言): 干 林北厂务 5/1 10/1 都要工作啦 操 04/28 23:18
826FYU0121 (48留言): 厂ㄈ呢 04/28 23:21
827Fa98450333 (29留言): 你打错了 ㄏㄈ才对 04/28 23:22
828Finvidia (28留言): 已经排到 10/1 ㄌ!!? 04/28 23:23
829Fasiasssh (45留言): ㄈ仔 来分加班费阿 04/28 23:26
830Fa98450333 (29留言): 你跟我分啊 我责任制是0 你们公司基本上不是不加班? 04/28 23:27
831Fa98450333 (29留言): 还没 反正每年都这样 04/28 23:27
832Fasiasssh (45留言): 那算了 04/28 23:27
833Fa98450333 (29留言): 阿不是要分 04/28 23:27
834Fa98450333 (29留言): 还是你去中东的津贴 和我的派驻均分 这样我肯定赚 04/28 23:28
835Fasiasssh (45留言): 你找个13岁玩cosplay的大奶正妹给我 我就答应 04/28 23:29
836Fstan1231 (105留言): 你们好乱 04/28 23:37
837Fa98450333 (29留言): 我比较想要13岁的贫乳妹妹 04/28 23:38
839FHyver (42留言): just another another o o! another LA devotee 04/29 00:03
840FYU0121 (48留言): 贫ㄈ呢 04/29 00:08
841Fbadbadook (6留言): 还 蛮 屌 的 04/29 00:08
842Fstan1231 (105留言): ㄆ愈什么时候送我金条 04/29 00:11
843FSkydier (44留言): 今天去垦丁大街看 人mountain人sea啊 04/29 00:13
844FYU0121 (48留言): 黄ㄈ送你 04/29 00:19
845FYU0121 (48留言): 怎没去大柄烤玉米找玉米歌 04/29 00:19
846FSkydier (44留言): 我根本没停车下来逛 嘻嘻 04/29 00:22
847FBenbenyale (40留言): 玉米哥贵到我开宾士去买玉米 我穿拖鞋走回家 04/29 00:23
848FL1ON (174留言): 置底真乱 04/29 00:23
849FYU0121 (48留言): 摊位后面是一家卖泰式料理的餐厅 那整栋都他们家的 04/29 00:28
850Fcynthia0620 (46留言): 看不懂你们在工三 04/29 00:37
851Fstan1231 (105留言): 玉米哥一根玉米卖500 看到426加码到800还排到卖光 04/29 00:43
852FHyver (42留言): 连玉米也BOT 04/29 00:48
853FP2P (12留言): 置底宅宅真的没救了 04/29 00:54
854Fdan5120 (98留言): 直笛肥宅去有打折吗 04/29 00:56
855Fstan1231 (105留言): 他会直接关店收摊 04/29 00:57
856FBenbenyale (40留言): FGO有板欸 04/29 01:03
858Fstan1231 (105留言): ㄆ愈 04/29 01:14
859FP2P (12留言): 该不该买PUBG咧 04/29 01:25
860FP2P (12留言): 还是买魔法石卡实在 04/29 01:25
861Fstan1231 (105留言): 前送我比较快 04/29 01:41
863Fstan1231 (105留言): 肥物们 04/29 03:40
864FL1ON (174留言): 换好衣服要出门惹 04/29 03:52
865FL1ON (174留言): 给力 我看了GGO惹 有第四集吗 QQ 04/29 03:54
866FGalLe5566 (122留言): 熟肉要等白天了 刚才才播完 04/29 04:03
867Fstan1231 (105留言): 给粒废 04/29 04:12
869FGalLe5566 (122留言): 咦? 动画风有上喔? 04/29 04:16
870FGalLe5566 (122留言): 我是飞到日本看得 04/29 04:17
871Fstan1231 (105留言): 你没用 吃扁 04/29 04:18
872Fstan1231 (105留言): 给丽菜出来 04/29 04:30
873Fiovoecu (10留言): 不准去日本 04/29 04:42
874Fcynthia0620 (46留言): 怎么要五点了 04/29 04:52
875FL1ON (174留言): 好!我来看惹 感谢史丹 辛西亚 iou 史丹 给力 早安,我跑到 04/29 05:14
876FL1ON (174留言): 家惹。 04/29 05:15
877Fstan1231 (105留言): 废物 04/29 05:21
878FGalLe5566 (122留言): 怎么惹? 我房间的冷气好像挂掉了 04/29 05:21
879FL1ON (174留言): 果然好看!给力要记得看动画风喔 04/29 05:33
880Fstan1231 (105留言): 肥物 04/29 05:49
881FGalLe5566 (122留言): 香莲软绵绵的有够可爱 尤其是最后那个脸 04/29 06:16
882FL1ON (174留言): 超可爱! 04/29 06:27
883FL1ON (174留言): ED唱完还反杀 04/29 06:28
884FGalLe5566 (122留言): 对啊 然后M那个脸也一样很可爱 04/29 06:29
885Fqoouow: (갨*′●) 04/29 07:17
886Fqoouow: ヾ(。>﹏<。)ノ゙。 04/29 07:17
887FHyver (42留言): 楼上果然翁早安 04/29 07:53
888Fyorkyoung (52留言): 早安 04/29 07:53
889FL1ON (174留言): 果然翁 海耳 约克羊 早安 04/29 07:54
890FL1ON (174留言): 今天又在看棒球 放假下午再出门好了 04/29 07:59
891Fa98450333 (29留言): 早 04/29 08:18
892Finvidia (28留言): 安安 04/29 09:15
893Fpony666: 早! 04/29 09:27
894Ffantasibear (103留言): 温馨~ 04/29 09:28
895FHyver (42留言): 狮早 04/29 09:32
896FL1ON (174留言): ㄈ仔 小马 幻熊 早安 我等一下喝个咖啡再去逛街。 04/29 09:50
898FSkydier (44留言): 恒春热 04/29 10:56
899Fgong0304: 这时代宅宅就是悲哀。只能当绿色工具人 04/29 11:03
900FSkydier (44留言): 陈给z的鼻屎也是绿色的 04/29 11:17
901Ffantasibear (103留言): 恒春是个好地方~~~~ 04/29 11:27
902FSkydier (44留言): 上周云都超多 不然我脚架都带来要去龙磐拍星星了 04/29 11:30
903FSkydier (44留言): 希望这周天气好点 04/29 11:31
904Ffantasibear (103留言): 运气运气啰 04/29 11:39
905Fa98450333 (29留言): 最烂夜市票选出炉 都传开高价吓死人 04/29 11:49
906Fstan1231 (105留言): ㄈ物 04/29 11:50
907Fa98450333 (29留言): 入口网站蕃薯藤旗下yamNews公布「全台最烂夜市」票选 04/29 11:52
908Fa98450333 (29留言): 结果,垦丁大街夺下第一 04/29 11:52
909Fa98450333 (29留言): 垦丁会黑掉,黑心玉米推了一把 04/29 11:52
910Ffantasibear (103留言): 恒春最有趣的夜市又不在垦丁 04/29 11:58
911FSkydier (44留言): 说到夜市 今天礼拜天恒春也有夜市欸 04/29 11:59
912FSkydier (44留言): 来去买地瓜球 04/29 11:59
913Ffantasibear (103留言): 我吃过最好吃的地瓜球结果是在中原夜市 04/29 12:18
914Fwryi1205 (41留言): 热 04/29 12:39
915Fdan5120 (98留言): 姆咪姆咪 04/29 12:46
916FBenbenyale (40留言): RIP 04/29 12:57
917FHyver (42留言): 投票的人太少啦! https://i.imgur.com/xze6sLg.jpg 04/29 13:09
918Finvidia (28留言): 花园也上榜了XD 04/29 13:15
919Fstan1231 (105留言): 用我图有经过同意ㄇ 04/29 13:17
920Fdan5120 (98留言): 宁夏以前还不错阿 太久没去了 04/29 13:21
921FHyver (42留言): 这我自己截的图欸... 04/29 13:31
922FHyver (42留言): 歪一边那么丑,不然还你 04/29 13:32
923Fyorkyoung (52留言): 出来打球好吗 04/29 13:34
924Finvidia (28留言): 约可羊当球~~~ 04/29 13:36
925FSkydier (44留言): 羊睾丸当球 球你带 04/29 13:37
927Fyorkyoung (52留言): :( 04/29 13:48
929Fasiasssh (45留言): 友情点终于重回100万了 开心 04/29 13:55
930FL1ON (174留言): 置底PEACE 我还在逛街喔 04/29 14:01
931Fstan1231 (105留言): → yorkyoung: 五楼想要抓萝莉然后做色色的事 04/29 14:01
932FBenbenyale (40留言): 肚子饿 04/29 14:02
933Ffantasibear (103留言): 狮子有逛到什么呀? 04/29 14:04
934Ffantasibear (103留言): 我中午做肉燥奶油炖饭,欧伊系~~ 04/29 14:05
935Fdan5120 (98留言): 那什么鬼 有图ㄇ 04/29 14:06
936Finvidia (28留言): 已报警 04/29 14:09
938Fxjp004123 (37留言): 约克羊很会喔 04/29 14:12
939FL1ON (174留言): 没耶 出门走走而已,要坐车回家了 04/29 14:15
940Fyorkyoung (52留言): 你到底是男的还是女的勒 04/29 14:16
941Fyorkyoung (52留言): >_< 04/29 14:16
942FL1ON (174留言): 你问谁? 04/29 14:16
943FL1ON (174留言): 约克羊你留错篇吼?是不是想汁妹? 04/29 14:17
944Fyorkyoung (52留言): 我问XJP啦 04/29 14:24
945Fyorkyoung (52留言): :( 04/29 14:24
946Faa52189: 跪求干爹赞助100p 04/29 14:28
947FL1ON (174留言): 我不是说 置底只能有男森吗?你白问了 04/29 14:29
948Fdan5120 (98留言): 汁妹羊 04/29 14:31
949Fyorkyoung (52留言): 可是他打lol的时候声音听起来是女ㄉ啊 04/29 14:34
950FL1ON (174留言): 4男森! 04/29 14:34
951FL1ON (174留言): 置底不可以有女森,我森77 04/29 14:35
952Fxjp004123 (37留言): 你看过女生玩劫的吗 04/29 14:35
954Fyorkyoung (52留言): 有啊 04/29 14:37
955Fyorkyoung (52留言): 你有看过男生玩索拉卡的ㄇ 04/29 14:38
956Fstan1231 (105留言): 你有看过女生尻枪ㄉㄇ 04/29 14:39
957FL1ON (174留言): 嘿咩 辛西亚也4男森ㄚ 04/29 14:39
958Fxjp004123 (37留言): 话说那个李星我女友 04/29 14:39
959Fxjp004123 (37留言): 上次花花给他拉克丝他骰掉 花花傻眼 04/29 14:40
960Fxjp004123 (37留言): 笑死 智障 04/29 14:40
961Fiovoecu (10留言): 不准汁妹 04/29 14:40
963FL1ON (174留言): 猫可爱 04/29 14:45
964Fcynthia0620 (46留言): 蛤 04/29 14:46
966FL1ON (174留言): 辛西亚是男森对不对! 04/29 14:52
967Fyorkyoung (52留言): 对啊 04/29 14:57
968Fyorkyoung (52留言): 辛西亚是我同班同学 04/29 14:57
969Fyorkyoung (52留言): 我的学校是男校 04/29 14:58
970FL1ON (174留言): 赞 04/29 15:00
971FL1ON (174留言): 好饿 我要吃饭 04/29 15:00
972Fyorkyoung (52留言): 沙茶炒羊肉^Q^ 04/29 15:02
973Fyorkyoung (52留言): 干想到就肚子饿 04/29 15:03
974Fmeowchen (18留言): 沙茶是吧 等我一会 我找下食材 04/29 15:04
975Fmeowchen (18留言): 上菜啰 https://i.imgur.com/Z7l7gSo.jpg 04/29 15:13
976FL1ON (174留言): 喵陈这个是茶约克羊吗? 04/29 15:16
977FL1ON (174留言): 沙茶约克羊! 04/29 15:16
978Fyorkyoung (52留言): 可爱♥ 04/29 15:17
980Fmeowchen (18留言): 欸嘿嘿 ♥ 04/29 15:22
981Fwryi1205 (41留言): 04/29 15:22
983Ffantasibear (103留言): 史丹家的废物咧 04/29 15:30
984Fstan1231 (105留言): 死了 04/29 15:30
985FL1ON (174留言): 史丹那个我订阅了 不错 04/29 15:35
986Fstan1231 (105留言): 肥物 04/29 15:41
987FL1ON (174留言): 废物 04/29 15:44
988Fdan5120 (98留言): ㄈ物 04/29 15:55
990FBenbenyale (40留言): 沙茶约克 04/29 16:20
991Fmeowchen (18留言): 对惹 羊羊直播ㄋ 04/29 16:24
992Fyorkyoung (52留言): cc 04/29 16:33
993Fyorkyoung (52留言): (^0^;) 04/29 16:33
994Fxjp004123 (37留言): 羊羊玩安妮 04/29 16:38
995Fyorkyoung (52留言): 0'_'0 04/29 16:39
996Fstan1231 (105留言): 肥物 04/29 16:41
997FL1ON (174留言): 史丹 你的废物霸气照呢 04/29 16:43
998Fstan1231 (105留言): 死了˙ 04/29 16:45
1000FL1ON (174留言): 嘻嘻 04/29 16:51
1001Ffantasibear (103留言): 揉废物~~~~ 04/29 17:13
1002Fwryi1205 (41留言): 04/29 17:16
1003FRaverIan: ☺☺☺☺☺☺ 04/29 17:23
1004Fcynthia0620 (46留言): 呕呕呕呕呕趁我不在居然这样说我 04/29 17:49
1005Fcynthia0620 (46留言): 羊羊那么老,我是年轻的小鲜肉欸 04/29 17:50
1006FGalLe5566 (122留言): 我想吃肉 04/29 18:08
1007Fpengjoker (6留言): 想吃火锅 04/29 18:15
1008FGalLe5566 (122留言): 我也想吃火锅 04/29 18:16
1009FGalLe5566 (122留言): 有肉的火锅 04/29 18:16
1010FBenbenyale (40留言): 卤约克羊 04/29 18:18
1011Finvidia (28留言): 男森不能玩索拉卡ㄇ >_< 04/29 18:18
1012Fstan1231 (105留言): 给粒废物 04/29 18:20
1013FGalLe5566 (122留言): 嗨四但 04/29 18:21
1014Fyorkyoung (52留言): 不然逆猜猜看我几岁呀>_< 04/29 18:25
1015Fpengjoker (6留言): 25 04/29 18:35
1016FYEEman: 盖 04/29 18:36
1017Finvidia (28留言): 25+1 04/29 18:36
1018Fwuke: 18 快要生日了 19 04/29 18:37
1019Fyorkyoung (52留言): :) 04/29 18:46
1020Fsnowman2: 好快,小戴超厉害,赞 04/29 18:49
1021Fcynthia0620 (46留言): 你不是还发过生日文 04/29 18:57
1022Fstan1231 (105留言): 肥物们 04/29 18:59
1023FSkydier (44留言): 50岁吧 我认识会画画的都年纪不小 04/29 19:20
1024FYU0121 (48留言): 鱼ㄈ呢 04/29 19:40
1025Fstan1231 (105留言): ㄆ玉 04/29 19:43
1026FBenbenyale (40留言): 吃太饱 玩了 04/29 20:04
1027FBenbenyale (40留言): 直笛动物: 金鱼 喵陈 约克羊 宅鸟 04/29 20:17
1028Fstan1231 (105留言): 给立ㄈ 04/29 20:34
1029Fyorkyoung (52留言): ㄈ三小 04/29 20:39
1030Fa98450333 (29留言): 干啥 吃鱼喝茶碍到你搂 04/29 20:50
1031FSkydier (44留言): 保健ㄈ 04/29 20:51
1032Fyorkyoung (52留言): 对了,我其实5000岁啰 04/29 20:53
1033Firumina: 幸运羊 04/29 21:00
1034FGalLe5566 (122留言): 所以你真的有嫖喔...我还以为他只是随便说说... 04/29 21:12
1035Fblackbottle: 哦哦哦哦哦哦哦哦哦哦哦哦哦哦哦哦哦哦哦哦哦哦哦哦 04/29 21:13
1037FGalLe5566 (122留言): 这个可以有 这样看起来好长喔 肥肚肚都不见了 04/29 21:23
1038FYU0121 (48留言): 嫖ㄈ呢 04/29 21:26
1039Fcynthia0620 (46留言): 好想睡 04/29 21:34
1040FHyver (42留言): 不准睡 不准早睡 不准比本肥早睡 不准比本肥还要早睡 04/29 21:41
1041Fdan5120 (98留言): 楼上ㄈ仔都几点睡 04/29 21:51
1042FSkydier (44留言): 红ㄈ一天工时都25小时的 哪像你们这些弱鸡湾湾 04/29 21:52
1043Fdan5120 (98留言): ㄈ仔是在匪区ㄇ 04/29 21:58
1044Fstan1231 (105留言): 给立ㄈ 04/29 22:16
1045FGalLe5566 (122留言): 怎么了? 04/29 22:17
1046FSkydier (44留言): 你累了? 04/29 22:18
1047FSkydier (44留言): 说好的 04/29 22:19
1048FGalLe5566 (122留言): 幸福呢 04/29 22:19
1049FSkydier (44留言): 妹妹呢 04/29 22:19
1050FSkydier (44留言): 插三小干干干呕呕呕呕呕呕呕干干呕 04/29 22:19
1051FGalLe5566 (122留言): 哼 比手速 我是不会输给任何人的!! 04/29 22:20
1052Fstan1231 (105留言): 北七 04/29 22:26
1053FSkydier (44留言): 市政 路 04/29 22:27
1055FGalLe5566 (122留言): 为什么今天有打光了? 变好亮喔 然后他眼睛变好圆 04/29 22:29
1056Fstan1231 (105留言): 就是个废物 04/29 22:30
1057Fasiasssh (45留言): 我的吕布终于绊6了 开心 04/29 22:30
1058Fasiasssh (45留言): 顺便月神这个废物也绊6了 04/29 22:31
1059FGalLe5566 (122留言): 欸欸 所以宅雅 你要抽多少萝莉? 04/29 22:31
1060FSkydier (44留言): 插 04/29 22:31
1061Fasiasssh (45留言): 拚小学生宝1就好 04/29 22:31
1062Fstan1231 (105留言): 给粒废吃屎抽不到之后的五星 04/29 22:32
1063Fasiasssh (45留言): 我准备200抽了 课金无上限 反正有个术打手hen赚 04/29 22:32
1064Fstan1231 (105留言): 我只有废物三脏 04/29 22:33
1065FGalLe5566 (122留言): 我抽个十抽消业障就好 我觉得抽不到 04/29 22:33
1066FGalLe5566 (122留言): 三葬评价不是比小学生高吗... 04/29 22:34
1067Fasiasssh (45留言): 三藏hen强耶 自充在混职关hen有用 打一发宝具hen有用 04/29 22:35
1068Fasiasssh (45留言): 缺点就是灵四卡面很丑 恶心 04/29 22:35
1069FGalLe5566 (122留言): 我在想要不要先把船长跟白枪练满 听说刷活动好用 04/29 22:35
1070FGalLe5566 (122留言): 三脏的卡面一整个丑 呕呕呕呕呕呕 04/29 22:36
1071FSkydier (44留言): 有比我丑? 04/29 22:37
1072FGalLe5566 (122留言): 因该有 那卡面真的不优... 04/29 22:37
1073FSkydier (44留言): 应喇干 04/29 22:38
1074Fstan1231 (105留言): 三脏废物 全buff打那支四不像不到8万 04/29 22:38
1075FGalLe5566 (122留言): 藏啦干 04/29 22:40
1076FGalLe5566 (122留言): 我反正有明狐了 伤害不够...就慢慢噜到够就好 04/29 22:40
1077FSkydier (44留言): 撸喇干 04/29 22:41
1078FGalLe5566 (122留言): 没有关卡是兰卡队50回合不能解决的! 如果有 那就60回合 04/29 22:41
1079Fstan1231 (105留言): 有狐嚣张逆 我有弓傻 大弓 月神 孔明啦 04/29 22:41
1080Fstan1231 (105留言): 还有满突宇宙伊利亚 04/29 22:42
1081FGalLe5566 (122留言): 你不会觉得用口噜比用手撸还要有感吗? 04/29 22:42
1082FSkydier (44留言): ==... 04/29 22:42
1083FGalLe5566 (122留言): 为啥你一堆弓...我抽都抽不到...从之前的金皮卡开始抽 04/29 22:43
1084FGalLe5566 (122留言): 到上一次的弓傻 没一只抽到的... 04/29 22:43
1085FGalLe5566 (122留言): 等等 大公不是弓... 04/29 22:44
1086Fstan1231 (105留言): 阿塔喵宝二 红A宝3 04/29 22:44
1087Fstan1231 (105留言): 月神宝2 弓傻宝2 04/29 22:44
1088FGalLe5566 (122留言): 我最多的是黑傻宝3 ... 不过我有蓝傻就是 04/29 22:45
1089Fstan1231 (105留言): 打到13节ㄌ 04/29 22:45
1090FGalLe5566 (122留言): 第六章? 04/29 22:45
1091Fstan1231 (105留言): 嚣张逆 我棉被王也宝2 04/29 22:45
1092Fasiasssh (45留言): 我也有蓝卡队 孔明,C狐,月神,大公,学妹,布丁卡 04/29 22:54
1093Fasiasssh (45留言): 不过C狐还是1级 也没练技 04/29 22:54
1094Fstan1231 (105留言): 布丁卡杂鱼就不要出来ㄌ 04/29 23:05
1095Ffriends29: 干 我家附近停电 崩溃 04/29 23:14
1096Fmeowchen (18留言): 再半小时就正常了 04/29 23:49
1097Fyorkyoung (52留言): 好 04/29 23:53
1099FBenbenyale (40留言): wagi 04/30 00:02
1100FGalLe5566 (122留言): 好 这个可以 这毛色也很漂亮 04/30 00:04
1101FP2P (12留言): 来玩PUBG啦 04/30 00:19
1102Ffantasibear (103留言): 好美丽的虎斑 04/30 00:57
1103Fstan1231 (105留言): ㄆ玉放开你的脏手 04/30 01:51
1104Fdan5120 (98留言): 干骑士要赢了 04/30 02:06
1105FMews (32留言): 今天 超级全力詹 04/30 02:08
1106Fdan5120 (98留言): 靠杯 烙赛一波 04/30 02:45
1107FL1ON (174留言): 全力詹不愧是当今天下第一人 04/30 03:47
1108FL1ON (174留言): 今天我詹要惹 04/30 03:48
1109FP2P (12留言): 干他妈的 有生之年还能看到惊爆危机出新番QWQ 04/30 04:08
1110FP2P (12留言): 来回顾小说 04/30 04:09
1111FL1ON (174留言): 置底肥宅早安 04/30 06:16
1112Fa98450333 (29留言): 真早 04/30 06:27
1113Fpony666: 早安 04/30 06:39
1114FL1ON (174留言): ㄈ仔 小马 早安 04/30 06:43
1115Finvidia (28留言): 安安安 04/30 07:05
1116Fwryi1205 (41留言): 04/30 07:12
1118FHyver (42留言): 早安,本肥觉得东泉过誉了,不好吃 04/30 08:18
1119FGalLe5566 (122留言): 早 今天的猫依然是猫 04/30 08:50
1120FGalLe5566 (122留言): 我在公三小? 算了 04/30 08:50
1121FSkydier (44留言): 呕呕呕呕呕呕 04/30 08:50
1122Fyorkyoung (52留言): XJP打lol 04/30 08:50
1123FGalLe5566 (122留言): 早喔呕呕呕 04/30 08:51
1124Fwryi1205 (41留言): 恶 04/30 08:57
1125Fstan1231 (105留言): 废物 04/30 08:57
1126Fyorkyoung (52留言): 请勿自介 04/30 09:01
1127FBenbenyale (40留言): 真的没有男生不看a片的欸 04/30 09:07
1128FMews (32留言): 打搂不揪的? 04/30 09:22
1129Fstan1231 (105留言): 宅鸟揪人打枪 04/30 09:31
1130FL1ON (174留言): 显卡 ryi1205 xjp 海耳 给力 天哥 约克羊 史丹 班班 宅鸟 早 04/30 10:15
1131FL1ON (174留言): 安 04/30 10:15
1132FL1ON (174留言): yorkyoung: 五楼都被大家意淫 04/30 10:40
1133Fasiasssh (45留言): ㄎㄎ 04/30 10:59
1134Fyorkyoung (52留言): :( 04/30 11:01
1135FSkydier (44留言): 三次元女友的五十岚人设蒸蚌 04/30 11:15
1136Fxjp004123 (37留言): 工作辣,明天可 04/30 11:17
1138Fxjp004123 (37留言): 早上一直叫,因为挑食不吃罐头,:( 04/30 11:22
1139Fasiasssh (45留言): 给我养 04/30 11:22
1140FSkydier (44留言): 不吃罐头 就把牠做成罐头 04/30 11:23
1141FMews (32留言): 肚子饿什么都好吃 给他饿个三天三夜 看他还敢不敢挑食 04/30 11:28
1142Fstan1231 (105留言): 废物 不吃就让他饿 04/30 11:28
1143Fstan1231 (105留言): 我家的让他饿还不是肥物 04/30 11:29
1144Fdan5120 (98留言): 早 04/30 11:30
1145FSkydier (44留言): 天空为什么是蓝色的 https://i.imgur.com/yy2tIUk.jpg 04/30 11:42
1146Fxjp004123 (37留言): 笑死 04/30 11:44
1147Fasiasssh (45留言): 锐利散色阿 04/30 11:54
1148Fyorkyoung (52留言): AZ第一季蛮好看的 04/30 12:01
1149FBenbenyale (40留言): 里昂早 天气好 04/30 12:03
1150Fstan1231 (105留言): 废物 04/30 12:13
1151Fiovoecu (10留言): 不准挑食 04/30 12:19
1152Ffantasibear (103留言): 垦丁丁~~ 04/30 12:39
1155FHyver (42留言): 摸摸羊 04/30 13:35
1157Fdan5120 (98留言): 肛门*羊 04/30 13:36
1158Fyorkyoung (52留言): ^0^ 04/30 13:44
1159FHyver (42留言): ※ ※ ※ ※ ※ ※ ※ ※ ※ ※ ※ ※ ※ ※ 04/30 13:50
1160Fa98450333 (29留言): 上班好忙 04/30 14:04
1161Fwryi1205 (41留言): 04/30 14:24
1162FL1ON (174留言): 宅亚 幻熊早安呦 对了,猫是一种很任性的动物,他如果很坚持 04/30 14:48
1163FL1ON (174留言): 不换罐头,会饿到送医给你看。我以前的狗和猫都是这样= = 04/30 14:49
1164FL1ON (174留言): iou早安 04/30 14:50
1165Fgod060119 (17留言): 作弊被抓到是不是要被砍头:( 04/30 14:51
1166Fdan5120 (98留言): 哇靠 跟风499 中华电信老人卡到死 04/30 14:59
1167FL1ON (174留言): 澄澄 丹丹 早安。澄澄怎么了?丹丹,499很多人办吗? 04/30 15:00
1168Fdan5120 (98留言): 种花军公教499最后一天r 04/30 15:15
1169FBenbenyale (40留言): 台湾有卖什么猫罐头口味吗? 04/30 15:16
1170Fdan5120 (98留言): 乡下讯号只能挑中华 话说办一般业务的有人抗议了 04/30 15:18
1171Fdan5120 (98留言): 12个窗口都在卡办499 04/30 15:19
1172FL1ON (174留言): 猫罐头我没研究呢 ~ 04/30 15:24
1173FBenbenyale (40留言): 住家附近空地半夜走路会看到几只猫 04/30 15:24
1174FL1ON (174留言): 如果要便宜的话,家乐福的应该还好?我穷的时候有买过。 04/30 15:28
1175FL1ON (174留言): 一般便利商店是40元一罐。 04/30 15:31
1176FL1ON (174留言): https://online.carrefour.com.tw/%E8%B2%93 这可以看一下。 04/30 15:31
1177FL1ON (174留言): 说到中华,因为我住台北所以没差,都换别家了。 04/30 15:35
1178FL1ON (174留言): 中华太贵惹。 04/30 15:36
1179FBenbenyale (40留言): 还是要多观察 我家附近有养一堆狗的 也有野狗 猫反而 04/30 15:43
1180FBenbenyale (40留言): 不常见 04/30 15:43
1181FL1ON (174留言): 斑斑人真好。 04/30 15:47
1182Fgod060119 (17留言): 蠢猫 没东西吃就装可爱 吃饱后就在嚣张 04/30 15:47
1183FL1ON (174留言): 大家晚安,我要睡一下88 04/30 15:47
1184Fgod060119 (17留言): 早安 04/30 15:47
1185FL1ON (174留言): 澄澄说得对,猫就是爱卖萌 04/30 15:48
1186Fdan5120 (98留言): 4的 不然我也想跳台哥 04/30 15:48
1188Ffantasibear (103留言): 新电脑登入嘘 04/30 15:55
1189FL1ON (174留言): https://i.imgur.com/mRvqwLU.jpg 我连家里宽频都换成4G吃 04/30 15:55
1190FL1ON (174留言): 到饱,相当于150M,也才799。 04/30 15:55
1191FL1ON (174留言): 幻熊,电脑好用ㄇ 04/30 15:58
1192Ffantasibear (103留言): 普通好。希望至少可撑5年。 04/30 16:03
1193Ffantasibear (103留言): 我正在研究 Acrobat pro 11 怎么成功...... 04/30 16:03
1194FL1ON (174留言): 可以喇。 04/30 16:06
1195FL1ON (174留言): 11?不就破解弄下去就行? 04/30 16:06
1196FL1ON (174留言): 用什么?一定要转pdf还是? 04/30 16:08
1197Ffantasibear (103留言): 就正在找破解版啊~ 好怕hao123 04/30 16:10
1198FL1ON (174留言): 我上次帮客人弄是自动猫2017,同家公司应该还是同个套路 04/30 16:12
1199Ffantasibear (103留言): 自动猫? 04/30 16:14
1200FL1ON (174留言): autocad 04/30 16:14
1201FL1ON (174留言): 阿不过呢,祖国的软体站有一定的风险,最好用win10+装防毒 04/30 16:15
1202Ffantasibear (103留言): 我防毒现在抓Avast来用 04/30 16:19
1203Ffantasibear (103留言): 我现在抓到档案了,详细读内容 04/30 16:20
1204Ffantasibear (103留言): 连office2016 也要金钥=_= 04/30 16:20
1205Ffantasibear (103留言): 先研究office 比较简单 04/30 16:21
1206Fkasion: 全职高手 好看A 04/30 16:24
1207Fstan1231 (105留言): 废物 04/30 16:39
1208Fxjp004123 (37留言): https://i.imgur.com/83wv4Ea.jpg 好累好累 04/30 16:43
1209FL1ON (174留言): 彩猴早 04/30 16:43
1210FL1ON (174留言): 史丹 xjp 幻熊 彩猴 晚安 我又一直滑手机ㄌ 04/30 16:44
1212FBenbenyale (40留言): 这只我有了 女仆奶好大 声音好嗲 04/30 16:56
1213FSkydier (44留言): 脱脱爱梨~~~~~~~~~~~~~~~~~~~~~~~~~~~~~~~~~~~~~` 04/30 17:06
1214Fs81048112: 感谢挺管人士帮忙升官 04/30 17:17
1215Fjack2004501: https://i.imgur.com/8RZxCkO.jpg 04/30 17:34
1216Fwryi1205 (41留言): 04/30 17:36
1217Fa98450333 (29留言): 喔 04/30 18:53
1218FSkydier (44留言): hiㄈ皇 04/30 18:54
1219Fstan1231 (105留言): ㄈ 04/30 18:54
1220Fwryi1205 (41留言): 04/30 18:55
1221Fawfulday (8留言): 超可爱ㄉhttps://i.imgur.com/jSGyjyd.jpg 04/30 19:10
1222Fa98450333 (29留言): 这谁啊 我恋爱了 04/30 19:13
1223Finvidia (28留言): O_O 04/30 19:14
1224Fstan1231 (105留言): 给粒废出来 04/30 19:50
1225FYU0121 (48留言): 烫茶ㄈ呢 04/30 20:03
1226FRaverIan: ㄤㄤㄤ 04/30 20:05
1227FSkydier (44留言): 这男的 04/30 20:09
1229Finvidia (28留言): 夹前面比较可i 04/30 20:14
1232FYU0158: 痣痒 好笑吗 04/30 20:31
1233Fwryi1205 (41留言): 04/30 20:32
1234Fkiminocodo (19留言): https://i.imgur.com/G0gZ0ld.jpg 爱你们这群肥宅^_^ 04/30 20:36
1235Fstan1231 (105留言): ㄆ玉给我黄金 04/30 20:37
1236FYU0121 (48留言): 跟菌有要 04/30 20:38
1237Fstan1231 (105留言): ㄆ玉 04/30 21:02
1238FBenbenyale (40留言): https://i.imgur.com/yWoHN3A.jpg 迷上了一个灰发阿嬷 04/30 21:23
1239Fstan1231 (105留言): 废物 04/30 21:30
1240Fa98450333 (29留言): 操 158怎么又出现了 04/30 21:30
1241Fgod060119 (17留言): 早安 有尻一枪提提神吗? 04/30 21:32
1242Fwryi1205 (41留言): 请给我黄金 04/30 21:33
1243Ffantasibear (103留言): Chrome有够烂无法看youtube,改回火狐 04/30 21:33
1244Fstan1231 (105留言): 我看得很爽 你电脑太烂 50nt收 04/30 21:36
1245Fdan5120 (98留言): 怎摸会不能看ㄋ 04/30 21:42
1246Fdan5120 (98留言): 看油管记得装adblock 04/30 21:43
1247Ffantasibear (103留言): 我也不知道啊,找一堆方法都失败 04/30 21:47
1250Ffantasibear (103留言): 哪来没节操的猫咪 04/30 22:10
1251Finvidia (28留言): 之前好像遇过 应该是要更新什么东西 04/30 22:11
1252Ffantasibear (103留言): 我一直都用火狐,每次换成chrome一下就不耐烦了 04/30 22:14
1255Fkiminocodo (19留言): 史丹人好好喔>\\\\\\\< 04/30 22:21
1256Fkiminocodo (19留言): 既然人都那么好了,骂我一句好不好>\\\\\\< 04/30 22:21
1257Fkiminocodo (19留言): 快骂我肥或废还是匪也都可以>\\\\\\\\\\\\\\\< 04/30 22:22
1258FL1ON (174留言): 肥宅 04/30 22:27
1259Fdan5120 (98留言): 抖M 04/30 22:46
1260Fkiminocodo (19留言): 呜呜呜呜狮子,就你不能说我肥宅喇,我会难过… 04/30 22:48
1261Fkiminocodo (19留言): 呜呜呜呜呜呜呜呜呜呜呜呜呜呜呜呜呜呜:( 04/30 22:48
1262Fmeowchen (18留言): -^- 04/30 22:48
1263Fkiminocodo (19留言): 楼上你那个是什么意思的表情啊? 04/30 22:51
1264Ffantasibear (103留言): 史丹那个网页我有看啊,但我找不到哪可要求 04/30 22:52
1265Fmeowchen (18留言): 眼睛闭起来鼻子尖尖的表情 04/30 22:53
1266Ffantasibear (103留言): 我的显示是说「此浏览器可能可以用」这类的话 04/30 22:53
1267Fdan5120 (98留言): win 10都更新过了吗 04/30 22:53
1268Fstan1231 (105留言): 废物电脑 50收 04/30 22:57
1270FGalLe5566 (122留言): 有两个可能 一是硬体 二是软体 如果是硬体问题 那没救 04/30 22:58
1271FGalLe5566 (122留言): 因为电脑你已经买了 二是软体 那也没救 因为那是厂商的 04/30 22:59
1272FGalLe5566 (122留言): 问题 你这里也没办法改 04/30 22:59
看更多 Kay731 的文章,或回到 Gossiping 看板